Time,TemperatureF,DewpointF,PressureIn,WindDirection,WindDirectionDegrees,WindSpeedMPH,WindSpeedGustMPH,Humidity,HourlyPrecipIn,Conditions,Clouds,dailyrainin,SoftwareType,DateUTC
2013-07-05 00:01:00,80.4,63.8,29.92,North,0,0.0,0.0,57,0.00,,---,0.00,VWS V14.01,2013-07-05 05:01:00,
2013-07-05 00:02:00,80.2,64.1,29.92,North,0,0.0,0.0,58,0.00,,---,0.00,VWS V14.01,2013-07-05 05:02:00,
2013-07-05 00:05:00,80.3,63.7,29.92,North,0,0.0,0.0,57,0.00,,---,0.00,VWS V14.01,2013-07-05 05:05:00,
2013-07-05 00:06:00,80.3,63.7,29.92,North,0,0.0,0.0,57,0.00,,---,0.00,VWS V14.01,2013-07-05 05:06:00,
2013-07-05 00:07:00,80.1,64.0,29.92,North,0,0.0,0.0,58,0.00,,---,0.00,VWS V14.01,2013-07-05 05:07:00,
2013-07-05 00:08:00,80.2,64.1,29.92,North,0,0.0,0.0,58,0.00,,---,0.00,VWS V14.01,2013-07-05 05:08:00,
2013-07-05 00:10:00,80.2,64.1,29.92,North,0,0.0,0.0,58,0.00,,---,0.00,VWS V14.01,2013-07-05 05:10:00,
2013-07-05 00:11:00,80.1,64.0,29.92,North,0,0.0,0.0,58,0.00,,---,0.00,VWS V14.01,2013-07-05 05:11:00,
2013-07-05 00:12:00,79.9,63.8,29.92,North,0,0.0,0.0,58,0.00,,---,0.00,VWS V14.01,2013-07-05 05:12:00,
2013-07-05 00:15:00,80.0,63.9,29.92,North,0,0.0,0.0,58,0.00,,---,0.00,VWS V14.01,2013-07-05 05:15:00,
2013-07-05 00:16:00,80.0,63.9,29.92,North,0,0.0,0.0,58,0.00,,---,0.00,VWS V14.01,2013-07-05 05:16:00,
2013-07-05 00:17:00,79.8,63.7,29.92,North,0,0.0,0.0,58,0.00,,---,0.00,VWS V14.01,2013-07-05 05:17:00,
2013-07-05 00:19:00,79.9,63.8,29.92,North,0,0.0,0.0,58,0.00,,---,0.00,VWS V14.01,2013-07-05 05:19:00,
2013-07-05 00:20:00,79.9,63.8,29.92,North,0,0.0,0.0,58,0.00,,---,0.00,VWS V14.01,2013-07-05 05:20:00,
2013-07-05 00:21:00,79.8,63.7,29.92,North,0,0.0,0.0,58,0.00,,---,0.00,VWS V14.01,2013-07-05 05:21:00,
2013-07-05 00:22:00,79.7,64.1,29.92,North,0,0.0,0.0,59,0.00,,---,0.00,VWS V14.01,2013-07-05 05:22:00,
2013-07-05 00:25:00,79.7,63.6,29.92,North,0,0.0,0.0,58,0.00,,---,0.00,VWS V14.01,2013-07-05 05:25:00,
2013-07-05 00:26:00,79.7,63.6,29.92,North,0,0.0,0.0,58,0.00,,---,0.00,VWS V14.01,2013-07-05 05:26:00,
2013-07-05 00:27:00,79.5,63.4,29.92,North,0,0.0,0.0,58,0.00,,---,0.00,VWS V14.01,2013-07-05 05:27:00,
2013-07-05 00:29:00,79.6,64.0,29.92,North,0,0.0,0.0,59,0.00,,---,0.00,VWS V14.01,2013-07-05 05:29:00,
2013-07-05 00:31:00,79.5,63.4,29.92,North,0,0.0,0.0,58,0.00,,---,0.00,VWS V14.01,2013-07-05 05:31:00,
2013-07-05 00:32:00,79.3,63.7,29.92,North,0,0.0,0.0,59,0.00,,---,0.00,VWS V14.01,2013-07-05 05:32:00,
2013-07-05 00:33:00,79.5,63.4,29.92,North,0,0.0,0.0,58,0.00,,---,0.00,VWS V14.01,2013-07-05 05:33:00,
2013-07-05 00:34:00,79.4,63.8,29.92,North,0,0.0,0.0,59,0.00,,---,0.00,VWS V14.01,2013-07-05 05:34:00,
2013-07-05 00:37:00,79.2,63.7,29.92,North,0,0.0,0.0,59,0.00,,---,0.00,VWS V14.01,2013-07-05 05:37:00,
2013-07-05 00:42:00,79.1,63.6,29.92,North,0,0.0,0.0,59,0.00,,---,0.00,VWS V14.01,2013-07-05 05:42:00,
2013-07-05 00:44:00,79.2,63.7,29.92,North,0,0.0,0.0,59,0.00,,---,0.00,VWS V14.01,2013-07-05 05:44:00,
2013-07-05 00:45:00,79.2,63.7,29.92,North,0,0.0,0.0,59,0.00,,---,0.00,VWS V14.01,2013-07-05 05:45:00,
2013-07-05 00:46:00,79.1,63.6,29.92,North,0,0.0,0.0,59,0.00,,---,0.00,VWS V14.01,2013-07-05 05:46:00,
2013-07-05 00:47:00,79.0,63.5,29.92,North,0,0.0,0.0,59,0.00,,---,0.00,VWS V14.01,2013-07-05 05:47:00,
2013-07-05 00:49:00,79.1,63.6,29.92,North,0,0.0,0.0,59,0.00,,---,0.00,VWS V14.01,2013-07-05 05:49:00,
2013-07-05 00:51:00,79.0,63.5,29.92,North,0,0.0,0.0,59,0.00,,---,0.00,VWS V14.01,2013-07-05 05:51:00,
2013-07-05 00:52:00,78.9,63.4,29.92,North,0,0.0,0.0,59,0.00,,---,0.00,VWS V14.01,2013-07-05 05:52:00,
2013-07-05 00:53:00,78.9,63.4,29.92,North,0,0.0,0.0,59,0.00,,---,0.00,VWS V14.01,2013-07-05 05:53:00,
2013-07-05 00:55:00,78.9,63.4,29.92,North,0,0.0,0.0,59,0.00,,---,0.00,VWS V14.01,2013-07-05 05:55:00,
2013-07-05 00:57:00,78.8,63.3,29.92,North,0,0.0,0.0,59,0.00,,---,0.00,VWS V14.01,2013-07-05 05:57:00,
2013-07-05 01:01:00,78.8,63.3,29.92,North,0,0.0,0.0,59,0.00,,---,0.00,VWS V14.01,2013-07-05 06:01:00,
2013-07-05 01:02:00,78.6,63.6,29.93,North,0,0.0,0.0,60,0.00,,---,0.00,VWS V14.01,2013-07-05 06:02:00,
2013-07-05 01:03:00,78.8,63.3,29.92,North,0,0.0,0.0,59,0.00,,---,0.00,VWS V14.01,2013-07-05 06:03:00,
2013-07-05 01:07:00,78.5,63.5,29.93,North,0,0.0,0.0,60,0.00,,---,0.00,VWS V14.01,2013-07-05 06:07:00,
2013-07-05 01:12:00,78.4,63.4,29.92,North,0,0.0,0.0,60,0.00,,---,0.00,VWS V14.01,2013-07-05 06:12:00,
2013-07-05 01:13:00,78.5,63.5,29.93,North,0,0.0,0.0,60,0.00,,---,0.00,VWS V14.01,2013-07-05 06:13:00,
2013-07-05 01:15:00,78.5,63.5,29.93,North,0,0.0,0.0,60,0.00,,---,0.00,VWS V14.01,2013-07-05 06:15:00,
2013-07-05 01:17:00,78.4,63.8,29.92,North,0,0.0,0.0,61,0.00,,---,0.00,VWS V14.01,2013-07-05 06:17:00,
2013-07-05 01:19:00,78.4,63.4,29.92,North,0,0.0,0.0,60,0.00,,---,0.00,VWS V14.01,2013-07-05 06:19:00,
2013-07-05 01:20:00,78.4,63.4,29.92,North,0,0.0,0.0,60,0.00,,---,0.00,VWS V14.01,2013-07-05 06:20:00,
2013-07-05 01:22:00,78.2,63.7,29.92,North,0,0.0,0.0,61,0.00,,---,0.00,VWS V14.01,2013-07-05 06:22:00,
2013-07-05 01:27:00,78.1,63.6,29.92,North,0,0.0,0.0,61,0.00,,---,0.00,VWS V14.01,2013-07-05 06:27:00,
2013-07-05 01:30:00,78.2,63.7,29.92,North,0,0.0,0.0,61,0.00,,---,0.00,VWS V14.01,2013-07-05 06:30:00,
2013-07-05 01:32:00,77.9,63.4,29.91,North,0,0.0,0.0,61,0.00,,---,0.00,VWS V14.01,2013-07-05 06:32:00,
2013-07-05 01:36:00,78.0,63.5,29.92,North,0,0.0,0.0,61,0.00,,---,0.00,VWS V14.01,2013-07-05 06:36:00,
2013-07-05 01:37:00,77.9,63.4,29.92,North,0,0.0,0.0,61,0.00,,---,0.00,VWS V14.01,2013-07-05 06:37:00,
2013-07-05 01:38:00,77.9,63.4,29.91,North,0,0.0,0.0,61,0.00,,---,0.00,VWS V14.01,2013-07-05 06:38:00,
2013-07-05 01:42:00,77.9,63.4,29.91,North,0,0.0,0.0,61,0.00,,---,0.00,VWS V14.01,2013-07-05 06:42:00,
2013-07-05 01:44:00,77.9,63.4,29.92,North,0,0.0,0.0,61,0.00,,---,0.00,VWS V14.01,2013-07-05 06:44:00,
2013-07-05 01:47:00,77.9,63.4,29.92,North,0,0.0,0.0,61,0.00,,---,0.00,VWS V14.01,2013-07-05 06:47:00,
2013-07-05 01:48:00,77.9,63.4,29.91,North,0,0.0,0.0,61,0.00,,---,0.00,VWS V14.01,2013-07-05 06:48:00,
2013-07-05 01:49:00,77.9,63.4,29.92,North,0,0.0,0.0,61,0.00,,---,0.00,VWS V14.01,2013-07-05 06:49:00,
2013-07-05 01:50:00,77.9,63.4,29.91,North,0,0.0,0.0,61,0.00,,---,0.00,VWS V14.01,2013-07-05 06:50:00,
2013-07-05 01:52:00,77.9,63.4,29.92,North,0,0.0,0.0,61,0.00,,---,0.00,VWS V14.01,2013-07-05 06:52:00,
2013-07-05 01:53:00,77.9,63.4,29.92,North,0,0.0,0.0,61,0.00,,---,0.00,VWS V14.01,2013-07-05 06:53:00,
2013-07-05 01:57:00,77.8,63.8,29.92,North,0,0.0,0.0,62,0.00,,---,0.00,VWS V14.01,2013-07-05 06:57:00,
2013-07-05 02:01:00,77.9,63.4,29.92,North,0,0.0,0.0,61,0.00,,---,0.00,VWS V14.01,2013-07-05 07:01:00,
2013-07-05 02:02:00,77.8,63.3,29.91,North,0,0.0,0.0,61,0.00,,---,0.00,VWS V14.01,2013-07-05 07:02:00,
2013-07-05 02:03:00,77.8,63.8,29.92,North,0,0.0,0.0,62,0.00,,---,0.00,VWS V14.01,2013-07-05 07:03:00,
2013-07-05 02:04:00,77.8,63.3,29.92,North,0,0.0,0.0,61,0.00,,---,0.00,VWS V14.01,2013-07-05 07:04:00,
2013-07-05 02:05:00,77.8,63.8,29.92,North,0,0.0,0.0,62,0.00,,---,0.00,VWS V14.01,2013-07-05 07:05:00,
2013-07-05 02:06:00,77.8,63.3,29.92,North,0,0.0,0.0,61,0.00,,---,0.00,VWS V14.01,2013-07-05 07:06:00,
2013-07-05 02:07:00,77.8,63.3,29.91,North,0,0.0,0.0,61,0.00,,---,0.00,VWS V14.01,2013-07-05 07:07:00,
2013-07-05 02:08:00,77.8,63.3,29.91,North,0,0.0,0.0,61,0.00,,---,0.00,VWS V14.01,2013-07-05 07:08:00,
2013-07-05 02:10:00,77.8,63.3,29.92,North,0,0.0,0.0,61,0.00,,---,0.00,VWS V14.01,2013-07-05 07:10:00,
2013-07-05 02:11:00,77.8,63.3,29.91,North,0,0.0,0.0,61,0.00,,---,0.00,VWS V14.01,2013-07-05 07:11:00,
2013-07-05 02:12:00,77.9,63.4,29.91,North,0,0.0,0.0,61,0.00,,---,0.00,VWS V14.01,2013-07-05 07:12:00,
2013-07-05 02:13:00,77.8,63.3,29.91,North,0,0.0,0.0,61,0.00,,---,0.00,VWS V14.01,2013-07-05 07:13:00,
2013-07-05 02:14:00,77.8,63.3,29.91,North,0,0.0,0.0,61,0.00,,---,0.00,VWS V14.01,2013-07-05 07:14:00,
2013-07-05 02:15:00,77.9,63.4,29.91,North,0,0.0,0.0,61,0.00,,---,0.00,VWS V14.01,2013-07-05 07:15:00,
2013-07-05 02:17:00,77.9,63.4,29.91,North,0,0.0,0.0,61,0.00,,---,0.00,VWS V14.01,2013-07-05 07:17:00,
2013-07-05 02:19:00,77.9,63.4,29.91,North,0,0.0,0.0,61,0.00,,---,0.00,VWS V14.01,2013-07-05 07:19:00,
2013-07-05 02:20:00,77.9,63.4,29.91,North,0,0.0,0.0,61,0.00,,---,0.00,VWS V14.01,2013-07-05 07:20:00,
2013-07-05 02:21:00,77.9,63.4,29.91,North,0,0.0,0.0,61,0.00,,---,0.00,VWS V14.01,2013-07-05 07:21:00,
2013-07-05 02:22:00,77.9,63.4,29.91,North,0,0.0,0.0,61,0.00,,---,0.00,VWS V14.01,2013-07-05 07:22:00,
2013-07-05 02:25:00,77.9,63.4,29.91,North,0,0.0,0.0,61,0.00,,---,0.00,VWS V14.01,2013-07-05 07:25:00,
2013-07-05 02:26:00,77.9,63.4,29.91,North,0,0.0,0.0,61,0.00,,---,0.00,VWS V14.01,2013-07-05 07:26:00,
2013-07-05 02:27:00,77.8,63.3,29.90,North,0,0.0,0.0,61,0.00,,---,0.00,VWS V14.01,2013-07-05 07:27:00,
2013-07-05 02:28:00,77.9,63.4,29.91,North,0,0.0,0.0,61,0.00,,---,0.00,VWS V14.01,2013-07-05 07:28:00,
2013-07-05 02:29:00,77.8,63.3,29.90,North,0,0.0,0.0,61,0.00,,---,0.00,VWS V14.01,2013-07-05 07:29:00,
2013-07-05 02:31:00,77.8,63.3,29.91,North,0,0.0,0.0,61,0.00,,---,0.00,VWS V14.01,2013-07-05 07:31:00,
2013-07-05 02:32:00,77.7,63.2,29.91,North,0,0.0,0.0,61,0.00,,---,0.00,VWS V14.01,2013-07-05 07:32:00,
2013-07-05 02:33:00,77.8,63.3,29.90,North,0,0.0,0.0,61,0.00,,---,0.00,VWS V14.01,2013-07-05 07:33:00,
2013-07-05 02:34:00,77.8,63.3,29.90,North,0,0.0,0.0,61,0.00,,---,0.00,VWS V14.01,2013-07-05 07:34:00,
2013-07-05 02:35:00,77.8,63.3,29.91,North,0,0.0,0.0,61,0.00,,---,0.00,VWS V14.01,2013-07-05 07:35:00,
2013-07-05 02:37:00,77.6,62.6,29.90,North,0,0.0,0.0,60,0.00,,---,0.00,VWS V14.01,2013-07-05 07:37:00,
2013-07-05 02:39:00,77.7,63.2,29.90,North,0,0.0,0.0,61,0.00,,---,0.00,VWS V14.01,2013-07-05 07:39:00,
2013-07-05 02:41:00,77.7,63.2,29.90,North,0,0.0,0.0,61,0.00,,---,0.00,VWS V14.01,2013-07-05 07:41:00,
2013-07-05 02:42:00,77.6,62.6,29.91,North,0,0.0,0.0,60,0.00,,---,0.00,VWS V14.01,2013-07-05 07:42:00,
2013-07-05 02:47:00,77.5,63.0,29.91,North,0,0.0,0.0,61,0.00,,---,0.00,VWS V14.01,2013-07-05 07:47:00,
2013-07-05 02:52:00,77.5,62.5,29.91,North,0,0.0,0.0,60,0.00,,---,0.00,VWS V14.01,2013-07-05 07:52:00,
2013-07-05 02:53:00,77.5,62.5,29.91,North,0,0.0,0.0,60,0.00,,---,0.00,VWS V14.01,2013-07-05 07:53:00,
2013-07-05 02:55:00,77.5,62.5,29.91,North,0,0.0,0.0,60,0.00,,---,0.00,VWS V14.01,2013-07-05 07:55:00,
2013-07-05 02:57:00,77.4,62.4,29.91,North,0,0.0,0.0,60,0.00,,---,0.00,VWS V14.01,2013-07-05 07:57:00,
2013-07-05 02:58:00,77.5,62.5,29.91,North,0,0.0,0.0,60,0.00,,---,0.00,VWS V14.01,2013-07-05 07:58:00,
2013-07-05 02:59:00,77.5,62.5,29.91,North,0,0.0,0.0,60,0.00,,---,0.00,VWS V14.01,2013-07-05 07:59:00,
2013-07-05 03:01:00,77.5,62.5,29.91,North,0,0.0,0.0,60,0.00,,---,0.00,VWS V14.01,2013-07-05 08:01:00,
2013-07-05 03:02:00,77.3,62.3,29.91,North,0,0.0,0.0,60,0.00,,---,0.00,VWS V14.01,2013-07-05 08:02:00,
2013-07-05 03:05:00,77.4,62.4,29.91,North,0,0.0,0.0,60,0.00,,---,0.00,VWS V14.01,2013-07-05 08:05:00,
2013-07-05 03:06:00,77.4,62.4,29.91,North,0,0.0,0.0,60,0.00,,---,0.00,VWS V14.01,2013-07-05 08:06:00,
2013-07-05 03:07:00,77.3,62.8,29.91,North,0,0.0,0.0,61,0.00,,---,0.00,VWS V14.01,2013-07-05 08:07:00,
2013-07-05 03:09:00,77.3,62.3,29.91,North,0,0.0,0.0,60,0.00,,---,0.00,VWS V14.01,2013-07-05 08:09:00,
2013-07-05 03:11:00,77.3,62.8,29.91,North,0,0.0,0.0,61,0.00,,---,0.00,VWS V14.01,2013-07-05 08:11:00,
2013-07-05 03:12:00,77.2,62.7,29.91,North,0,0.0,0.0,61,0.00,,---,0.00,VWS V14.01,2013-07-05 08:12:00,
2013-07-05 03:13:00,77.3,62.8,29.91,North,0,0.0,0.0,61,0.00,,---,0.00,VWS V14.01,2013-07-05 08:13:00,
2013-07-05 03:15:00,77.3,62.8,29.91,North,0,0.0,0.0,61,0.00,,---,0.00,VWS V14.01,2013-07-05 08:15:00,
2013-07-05 03:17:00,77.2,62.7,29.91,North,0,0.0,0.0,61,0.00,,---,0.00,VWS V14.01,2013-07-05 08:17:00,
2013-07-05 03:19:00,77.2,62.7,29.92,North,0,0.0,0.0,61,0.00,,---,0.00,VWS V14.01,2013-07-05 08:19:00,
2013-07-05 03:20:00,77.2,62.7,29.91,North,0,0.0,0.0,61,0.00,,---,0.00,VWS V14.01,2013-07-05 08:20:00,
2013-07-05 03:21:00,77.2,62.7,29.91,North,0,0.0,0.0,61,0.00,,---,0.00,VWS V14.01,2013-07-05 08:21:00,
2013-07-05 03:22:00,77.1,62.6,29.91,North,0,0.0,0.0,61,0.00,,---,0.00,VWS V14.01,2013-07-05 08:22:00,
2013-07-05 03:23:00,77.2,62.7,29.91,North,0,0.0,0.0,61,0.00,,---,0.00,VWS V14.01,2013-07-05 08:23:00,
2013-07-05 03:24:00,77.2,62.7,29.91,North,0,0.0,0.0,61,0.00,,---,0.00,VWS V14.01,2013-07-05 08:24:00,
2013-07-05 03:25:00,77.2,62.7,29.91,North,0,0.0,0.0,61,0.00,,---,0.00,VWS V14.01,2013-07-05 08:25:00,
2013-07-05 03:27:00,77.0,62.5,29.91,North,0,0.0,0.0,61,0.00,,---,0.00,VWS V14.01,2013-07-05 08:27:00,
2013-07-05 03:29:00,77.1,62.6,29.91,North,0,0.0,0.0,61,0.00,,---,0.00,VWS V14.01,2013-07-05 08:29:00,
2013-07-05 03:31:00,77.1,62.6,29.91,North,0,0.0,0.0,61,0.00,,---,0.00,VWS V14.01,2013-07-05 08:31:00,
2013-07-05 03:32:00,76.9,62.4,29.91,North,0,0.0,0.0,61,0.00,,---,0.00,VWS V14.01,2013-07-05 08:32:00,
2013-07-05 03:33:00,77.0,62.5,29.91,North,0,0.0,0.0,61,0.00,,---,0.00,VWS V14.01,2013-07-05 08:33:00,
2013-07-05 03:35:00,77.0,62.5,29.91,North,0,0.0,0.0,61,0.00,,---,0.00,VWS V14.01,2013-07-05 08:35:00,
2013-07-05 03:36:00,77.0,62.5,29.91,North,0,0.0,0.0,61,0.00,,---,0.00,VWS V14.01,2013-07-05 08:36:00,
2013-07-05 03:37:00,76.9,62.4,29.91,North,0,0.0,0.0,61,0.00,,---,0.00,VWS V14.01,2013-07-05 08:37:00,
2013-07-05 03:39:00,76.9,62.4,29.91,North,0,0.0,0.0,61,0.00,,---,0.00,VWS V14.01,2013-07-05 08:39:00,
2013-07-05 03:40:00,76.9,62.4,29.91,North,0,0.0,0.0,61,0.00,,---,0.00,VWS V14.01,2013-07-05 08:40:00,
2013-07-05 03:42:00,76.8,62.3,29.91,North,0,0.0,0.0,61,0.00,,---,0.00,VWS V14.01,2013-07-05 08:42:00,
2013-07-05 03:43:00,76.8,62.3,29.91,North,0,0.0,0.0,61,0.00,,---,0.00,VWS V14.01,2013-07-05 08:43:00,
2013-07-05 03:45:00,76.8,62.8,29.91,North,0,0.0,0.0,62,0.00,,---,0.00,VWS V14.01,2013-07-05 08:45:00,
2013-07-05 03:47:00,76.7,62.2,29.91,North,0,0.0,0.0,61,0.00,,---,0.00,VWS V14.01,2013-07-05 08:47:00,
2013-07-05 03:49:00,76.8,62.3,29.91,North,0,0.0,0.0,61,0.00,,---,0.00,VWS V14.01,2013-07-05 08:49:00,
2013-07-05 03:51:00,76.7,62.2,29.91,North,0,0.0,0.0,61,0.00,,---,0.00,VWS V14.01,2013-07-05 08:51:00,
2013-07-05 03:52:00,76.7,62.2,29.91,North,0,0.0,0.0,61,0.00,,---,0.00,VWS V14.01,2013-07-05 08:52:00,
2013-07-05 03:53:00,76.7,62.2,29.91,North,0,0.0,0.0,61,0.00,,---,0.00,VWS V14.01,2013-07-05 08:53:00,
2013-07-05 03:56:00,76.7,62.2,29.91,North,0,0.0,0.0,61,0.00,,---,0.00,VWS V14.01,2013-07-05 08:56:00,
2013-07-05 03:57:00,76.7,62.2,29.90,North,0,0.0,0.0,61,0.00,,---,0.00,VWS V14.01,2013-07-05 08:57:00,
2013-07-05 03:58:00,76.7,62.2,29.91,North,0,0.0,0.0,61,0.00,,---,0.00,VWS V14.01,2013-07-05 08:58:00,
2013-07-05 03:59:00,76.7,62.2,29.91,North,0,0.0,0.0,61,0.00,,---,0.00,VWS V14.01,2013-07-05 08:59:00,
2013-07-05 04:00:00,76.7,62.2,29.91,North,0,0.0,0.0,61,0.00,,---,0.00,VWS V14.01,2013-07-05 09:00:00,
2013-07-05 04:01:00,76.7,62.2,29.90,North,0,0.0,0.0,61,0.00,,---,0.00,VWS V14.01,2013-07-05 09:01:00,
2013-07-05 04:02:00,76.7,62.2,29.90,North,0,0.0,0.0,61,0.00,,---,0.00,VWS V14.01,2013-07-05 09:02:00,
2013-07-05 04:03:00,76.7,62.2,29.90,North,0,0.0,0.0,61,0.00,,---,0.00,VWS V14.01,2013-07-05 09:03:00,
2013-07-05 04:04:00,76.7,62.2,29.90,North,0,0.0,0.0,61,0.00,,---,0.00,VWS V14.01,2013-07-05 09:04:00,
2013-07-05 04:05:00,76.7,62.2,29.90,North,0,0.0,0.0,61,0.00,,---,0.00,VWS V14.01,2013-07-05 09:05:00,
2013-07-05 04:06:00,76.7,62.2,29.90,North,0,0.0,0.0,61,0.00,,---,0.00,VWS V14.01,2013-07-05 09:06:00,
2013-07-05 04:07:00,76.7,61.8,29.90,North,0,0.0,0.0,60,0.00,,---,0.00,VWS V14.01,2013-07-05 09:07:00,
2013-07-05 04:09:00,76.7,61.8,29.90,North,0,0.0,0.0,60,0.00,,---,0.00,VWS V14.01,2013-07-05 09:09:00,
2013-07-05 04:11:00,76.7,61.8,29.90,North,0,0.0,0.0,60,0.00,,---,0.00,VWS V14.01,2013-07-05 09:11:00,
2013-07-05 04:12:00,76.7,61.8,29.91,North,0,0.0,0.0,60,0.00,,---,0.00,VWS V14.01,2013-07-05 09:12:00,
2013-07-05 04:14:00,76.7,61.8,29.91,North,0,0.0,0.0,60,0.00,,---,0.00,VWS V14.01,2013-07-05 09:14:00,
2013-07-05 04:17:00,76.7,62.2,29.91,North,0,0.0,0.0,61,0.00,,---,0.00,VWS V14.01,2013-07-05 09:17:00,
2013-07-05 04:18:00,76.7,61.8,29.91,North,0,0.0,0.0,60,0.00,,---,0.00,VWS V14.01,2013-07-05 09:18:00,
2013-07-05 04:20:00,76.7,62.2,29.91,North,0,0.0,0.0,61,0.00,,---,0.00,VWS V14.01,2013-07-05 09:20:00,
2013-07-05 04:21:00,76.7,62.2,29.91,North,0,0.0,0.0,61,0.00,,---,0.00,VWS V14.01,2013-07-05 09:21:00,
2013-07-05 04:22:00,76.7,62.2,29.91,North,0,0.0,0.0,61,0.00,,---,0.00,VWS V14.01,2013-07-05 09:22:00,
2013-07-05 04:23:00,76.6,62.2,29.91,North,0,0.0,0.0,61,0.00,,---,0.00,VWS V14.01,2013-07-05 09:23:00,
2013-07-05 04:24:00,76.7,62.2,29.91,North,0,0.0,0.0,61,0.00,,---,0.00,VWS V14.01,2013-07-05 09:24:00,
2013-07-05 04:25:00,76.7,62.2,29.91,North,0,0.0,0.0,61,0.00,,---,0.00,VWS V14.01,2013-07-05 09:25:00,
2013-07-05 04:26:00,76.7,62.2,29.91,North,0,0.0,0.0,61,0.00,,---,0.00,VWS V14.01,2013-07-05 09:26:00,
2013-07-05 04:27:00,76.6,62.2,29.91,North,0,0.0,0.0,61,0.00,,---,0.00,VWS V14.01,2013-07-05 09:27:00,
2013-07-05 04:28:00,76.6,62.2,29.91,North,0,0.0,0.0,61,0.00,,---,0.00,VWS V14.01,2013-07-05 09:28:00,
2013-07-05 04:29:00,76.6,62.2,29.91,North,0,0.0,0.0,61,0.00,,---,0.00,VWS V14.01,2013-07-05 09:29:00,
2013-07-05 04:30:00,76.6,62.2,29.91,North,0,0.0,0.0,61,0.00,,---,0.00,VWS V14.01,2013-07-05 09:30:00,
2013-07-05 04:33:00,76.5,62.1,29.91,North,0,0.0,0.0,61,0.00,,---,0.00,VWS V14.01,2013-07-05 09:33:00,
2013-07-05 04:35:00,76.6,62.2,29.91,North,0,0.0,0.0,61,0.00,,---,0.00,VWS V14.01,2013-07-05 09:35:00,
2013-07-05 04:37:00,76.5,62.1,29.90,North,0,0.0,0.0,61,0.00,,---,0.00,VWS V14.01,2013-07-05 09:37:00,
2013-07-05 04:38:00,76.4,62.0,29.91,North,0,0.0,0.0,61,0.00,,---,0.00,VWS V14.01,2013-07-05 09:38:00,
2013-07-05 04:39:00,76.5,62.1,29.91,North,0,0.0,0.0,61,0.00,,---,0.00,VWS V14.01,2013-07-05 09:39:00,
2013-07-05 04:41:00,76.4,62.0,29.91,North,0,0.0,0.0,61,0.00,,---,0.00,VWS V14.01,2013-07-05 09:41:00,
2013-07-05 04:42:00,76.4,62.0,29.91,North,0,0.0,0.0,61,0.00,,---,0.00,VWS V14.01,2013-07-05 09:42:00,
2013-07-05 04:43:00,76.3,61.9,29.91,North,0,0.0,0.0,61,0.00,,---,0.00,VWS V14.01,2013-07-05 09:43:00,
2013-07-05 04:47:00,76.4,62.0,29.91,North,0,0.0,0.0,61,0.00,,---,0.00,VWS V14.01,2013-07-05 09:47:00,
2013-07-05 04:48:00,76.2,61.8,29.91,North,0,0.0,0.0,61,0.00,,---,0.00,VWS V14.01,2013-07-05 09:48:00,
2013-07-05 04:49:00,76.3,61.9,29.91,North,0,0.0,0.0,61,0.00,,---,0.00,VWS V14.01,2013-07-05 09:49:00,
2013-07-05 04:52:00,76.3,61.9,29.91,North,0,0.0,0.0,61,0.00,,---,0.00,VWS V14.01,2013-07-05 09:52:00,
2013-07-05 04:53:00,76.2,62.2,29.91,North,0,0.0,0.0,62,0.00,,---,0.00,VWS V14.01,2013-07-05 09:53:00,
2013-07-05 04:54:00,76.2,61.8,29.91,North,0,0.0,0.0,61,0.00,,---,0.00,VWS V14.01,2013-07-05 09:54:00,
2013-07-05 04:55:00,76.2,61.8,29.91,North,0,0.0,0.0,61,0.00,,---,0.00,VWS V14.01,2013-07-05 09:55:00,
2013-07-05 04:56:00,76.2,61.8,29.91,North,0,0.0,0.0,61,0.00,,---,0.00,VWS V14.01,2013-07-05 09:56:00,
2013-07-05 04:57:00,76.2,62.2,29.91,North,0,0.0,0.0,62,0.00,,---,0.00,VWS V14.01,2013-07-05 09:57:00,
2013-07-05 04:58:00,76.0,62.0,29.91,North,0,0.0,0.0,62,0.00,,---,0.00,VWS V14.01,2013-07-05 09:58:00,
2013-07-05 04:59:00,76.1,62.2,29.91,North,0,0.0,0.0,62,0.00,,---,0.00,VWS V14.01,2013-07-05 09:59:00,
2013-07-05 05:00:00,76.1,62.2,29.91,North,0,0.0,0.0,62,0.00,,---,0.00,VWS V14.01,2013-07-05 10:00:00,
2013-07-05 05:01:00,76.1,62.2,29.91,North,0,0.0,0.0,62,0.00,,---,0.00,VWS V14.01,2013-07-05 10:01:00,
2013-07-05 05:02:00,76.0,62.0,29.91,North,0,0.0,0.0,62,0.00,,---,0.00,VWS V14.01,2013-07-05 10:02:00,
2013-07-05 05:03:00,75.8,61.9,29.91,North,0,0.0,0.0,62,0.00,,---,0.00,VWS V14.01,2013-07-05 10:03:00,
2013-07-05 05:04:00,76.0,62.0,29.91,North,0,0.0,0.0,62,0.00,,---,0.00,VWS V14.01,2013-07-05 10:04:00,
2013-07-05 05:05:00,76.0,62.0,29.91,North,0,0.0,0.0,62,0.00,,---,0.00,VWS V14.01,2013-07-05 10:05:00,
2013-07-05 05:07:00,75.9,62.0,29.90,North,0,0.0,0.0,62,0.00,,---,0.00,VWS V14.01,2013-07-05 10:07:00,
2013-07-05 05:08:00,75.7,61.8,29.91,North,0,0.0,0.0,62,0.00,,---,0.00,VWS V14.01,2013-07-05 10:08:00,
2013-07-05 05:09:00,75.8,61.9,29.91,North,0,0.0,0.0,62,0.00,,---,0.00,VWS V14.01,2013-07-05 10:09:00,
2013-07-05 05:10:00,75.8,61.9,29.91,North,0,0.0,0.0,62,0.00,,---,0.00,VWS V14.01,2013-07-05 10:10:00,
2013-07-05 05:11:00,75.8,61.9,29.91,North,0,0.0,0.0,62,0.00,,---,0.00,VWS V14.01,2013-07-05 10:11:00,
2013-07-05 05:12:00,75.8,61.9,29.91,North,0,0.0,0.0,62,0.00,,---,0.00,VWS V14.01,2013-07-05 10:12:00,
2013-07-05 05:13:00,75.5,61.6,29.91,North,0,0.0,0.0,62,0.00,,---,0.00,VWS V14.01,2013-07-05 10:13:00,
2013-07-05 05:15:00,75.7,61.8,29.91,North,0,0.0,0.0,62,0.00,,---,0.00,VWS V14.01,2013-07-05 10:15:00,
2013-07-05 05:16:00,75.6,61.7,29.91,North,0,0.0,0.0,62,0.00,,---,0.00,VWS V14.01,2013-07-05 10:16:00,
2013-07-05 05:17:00,75.6,61.7,29.91,North,0,0.0,0.0,62,0.00,,---,0.00,VWS V14.01,2013-07-05 10:17:00,
2013-07-05 05:18:00,75.4,61.9,29.91,North,0,0.0,0.0,63,0.00,,---,0.00,VWS V14.01,2013-07-05 10:18:00,
2013-07-05 05:19:00,75.5,61.6,29.91,North,0,0.0,0.0,62,0.00,,---,0.00,VWS V14.01,2013-07-05 10:19:00,
2013-07-05 05:21:00,75.5,62.0,29.91,North,0,0.0,0.0,63,0.00,,---,0.00,VWS V14.01,2013-07-05 10:21:00,
2013-07-05 05:22:00,75.4,61.9,29.91,North,0,0.0,0.0,63,0.00,,---,0.00,VWS V14.01,2013-07-05 10:22:00,
2013-07-05 05:23:00,75.2,62.2,29.91,North,0,0.0,0.0,64,0.00,,---,0.00,VWS V14.01,2013-07-05 10:23:00,
2013-07-05 05:24:00,75.3,61.8,29.91,North,0,0.0,0.0,63,0.00,,---,0.00,VWS V14.01,2013-07-05 10:24:00,
2013-07-05 05:25:00,75.3,61.8,29.91,North,0,0.0,0.0,63,0.00,,---,0.00,VWS V14.01,2013-07-05 10:25:00,
2013-07-05 05:26:00,75.3,61.8,29.91,North,0,0.0,0.0,63,0.00,,---,0.00,VWS V14.01,2013-07-05 10:26:00,
2013-07-05 05:27:00,75.3,62.3,29.91,North,0,0.0,0.0,64,0.00,,---,0.00,VWS V14.01,2013-07-05 10:27:00,
2013-07-05 05:28:00,75.1,62.1,29.91,North,0,0.0,0.0,64,0.00,,---,0.00,VWS V14.01,2013-07-05 10:28:00,
2013-07-05 05:30:00,75.2,62.2,29.91,North,0,0.0,0.0,64,0.00,,---,0.00,VWS V14.01,2013-07-05 10:30:00,
2013-07-05 05:31:00,75.1,62.1,29.91,North,0,0.0,0.0,64,0.00,,---,0.00,VWS V14.01,2013-07-05 10:31:00,
2013-07-05 05:32:00,75.1,62.1,29.91,North,0,0.0,0.0,64,0.00,,---,0.00,VWS V14.01,2013-07-05 10:32:00,
2013-07-05 05:33:00,74.9,61.9,29.91,North,0,0.0,0.0,64,0.00,,---,0.00,VWS V14.01,2013-07-05 10:33:00,
2013-07-05 05:34:00,75.1,62.1,29.91,North,0,0.0,0.0,64,0.00,,---,0.00,VWS V14.01,2013-07-05 10:34:00,
2013-07-05 05:38:00,74.8,61.8,29.91,North,0,0.0,0.0,64,0.00,,---,0.00,VWS V14.01,2013-07-05 10:38:00,
2013-07-05 05:39:00,74.9,61.9,29.91,North,0,0.0,0.0,64,0.00,,---,0.00,VWS V14.01,2013-07-05 10:39:00,
2013-07-05 05:41:00,74.8,61.8,29.91,North,0,0.0,0.0,64,0.00,,---,0.00,VWS V14.01,2013-07-05 10:41:00,
2013-07-05 05:43:00,74.6,61.6,29.92,North,0,0.0,0.0,64,0.00,,---,0.00,VWS V14.01,2013-07-05 10:43:00,
2013-07-05 05:44:00,74.8,61.8,29.91,North,0,0.0,0.0,64,0.00,,---,0.00,VWS V14.01,2013-07-05 10:44:00,
2013-07-05 05:45:00,74.7,61.7,29.91,North,0,0.0,0.0,64,0.00,,---,0.00,VWS V14.01,2013-07-05 10:45:00,
2013-07-05 05:46:00,74.7,61.7,29.92,North,0,0.0,0.0,64,0.00,,---,0.00,VWS V14.01,2013-07-05 10:46:00,
2013-07-05 05:48:00,74.4,61.4,29.91,North,0,0.0,0.0,64,0.00,,---,0.00,VWS V14.01,2013-07-05 10:48:00,
2013-07-05 05:51:00,74.5,61.5,29.92,North,0,0.0,0.0,64,0.00,,---,0.00,VWS V14.01,2013-07-05 10:51:00,
2013-07-05 05:52:00,74.5,61.5,29.92,North,0,0.0,0.0,64,0.00,,---,0.00,VWS V14.01,2013-07-05 10:52:00,
2013-07-05 05:53:00,74.3,61.3,29.91,North,0,0.0,0.0,64,0.00,,---,0.00,VWS V14.01,2013-07-05 10:53:00,
2013-07-05 05:55:00,74.4,61.4,29.92,North,0,0.0,0.0,64,0.00,,---,0.00,VWS V14.01,2013-07-05 10:55:00,
2013-07-05 05:56:00,74.4,61.4,29.92,North,0,0.0,0.0,64,0.00,,---,0.00,VWS V14.01,2013-07-05 10:56:00,
2013-07-05 05:57:00,74.4,61.4,29.91,North,0,0.0,0.0,64,0.00,,---,0.00,VWS V14.01,2013-07-05 10:57:00,
2013-07-05 05:58:00,74.2,61.7,29.92,North,0,0.0,0.0,65,0.00,,---,0.00,VWS V14.01,2013-07-05 10:58:00,
2013-07-05 05:59:00,74.3,61.3,29.91,North,0,0.0,0.0,64,0.00,,---,0.00,VWS V14.01,2013-07-05 10:59:00,
2013-07-05 06:00:00,74.3,61.8,29.91,North,0,0.0,0.0,65,0.00,,---,0.00,VWS V14.01,2013-07-05 11:00:00,
2013-07-05 06:02:00,74.2,61.7,29.91,North,0,0.0,0.0,65,0.00,,---,0.00,VWS V14.01,2013-07-05 11:02:00,
2013-07-05 06:03:00,74.0,61.5,29.92,North,0,0.0,0.0,65,0.00,,---,0.00,VWS V14.01,2013-07-05 11:03:00,
2013-07-05 06:04:00,74.2,61.7,29.92,North,0,0.0,0.0,65,0.00,,---,0.00,VWS V14.01,2013-07-05 11:04:00,
2013-07-05 06:05:00,74.1,61.6,29.92,North,0,0.0,0.0,65,0.00,,---,0.00,VWS V14.01,2013-07-05 11:05:00,
2013-07-05 06:06:00,74.1,61.6,29.92,North,0,0.0,0.0,65,0.00,,---,0.00,VWS V14.01,2013-07-05 11:06:00,
2013-07-05 06:07:00,74.0,61.5,29.92,North,0,0.0,0.0,65,0.00,,---,0.00,VWS V14.01,2013-07-05 11:07:00,
2013-07-05 06:08:00,73.8,61.3,29.92,North,0,0.0,0.0,65,0.00,,---,0.00,VWS V14.01,2013-07-05 11:08:00,
2013-07-05 06:09:00,74.0,61.5,29.92,North,0,0.0,0.0,65,0.00,,---,0.00,VWS V14.01,2013-07-05 11:09:00,
2013-07-05 06:13:00,73.9,61.4,29.92,North,0,0.0,0.0,65,0.00,,---,0.00,VWS V14.01,2013-07-05 11:13:00,
2013-07-05 06:14:00,73.7,61.2,29.92,North,0,0.0,0.0,65,0.00,,---,0.00,VWS V14.01,2013-07-05 11:14:00,
2013-07-05 06:15:00,73.8,61.3,29.92,North,0,0.0,0.0,65,0.00,,---,0.00,VWS V14.01,2013-07-05 11:15:00,
2013-07-05 06:16:00,73.8,61.3,29.92,North,0,0.0,0.0,65,0.00,,---,0.00,VWS V14.01,2013-07-05 11:16:00,
2013-07-05 06:17:00,73.7,61.2,29.91,North,0,0.0,0.0,65,0.00,,---,0.00,VWS V14.01,2013-07-05 11:17:00,
2013-07-05 06:19:00,73.5,61.5,29.92,North,0,0.0,0.0,66,0.00,,---,0.00,VWS V14.01,2013-07-05 11:19:00,
2013-07-05 06:20:00,73.7,61.2,29.92,North,0,0.0,0.0,65,0.00,,---,0.00,VWS V14.01,2013-07-05 11:20:00,
2013-07-05 06:23:00,73.6,61.5,29.92,North,0,0.0,0.0,66,0.00,,---,0.00,VWS V14.01,2013-07-05 11:23:00,
2013-07-05 06:24:00,73.4,61.4,29.92,North,0,0.0,0.0,66,0.00,,---,0.00,VWS V14.01,2013-07-05 11:24:00,
2013-07-05 06:26:00,73.5,61.5,29.92,North,0,0.0,0.0,66,0.00,,---,0.00,VWS V14.01,2013-07-05 11:26:00,
2013-07-05 06:27:00,73.5,61.5,29.92,North,0,0.0,0.0,66,0.00,,---,0.00,VWS V14.01,2013-07-05 11:27:00,
2013-07-05 06:29:00,73.3,61.3,29.92,North,0,0.0,0.0,66,0.00,,---,0.00,VWS V14.01,2013-07-05 11:29:00,
2013-07-05 06:31:00,73.4,61.4,29.92,North,0,0.0,0.0,66,0.00,,---,0.00,VWS V14.01,2013-07-05 11:31:00,
2013-07-05 06:34:00,73.1,61.5,29.92,North,0,0.0,0.0,67,0.00,,---,0.00,VWS V14.01,2013-07-05 11:34:00,
2013-07-05 06:35:00,73.3,61.3,29.92,North,0,0.0,0.0,66,0.00,,---,0.00,VWS V14.01,2013-07-05 11:35:00,
2013-07-05 06:36:00,73.3,61.3,29.92,North,0,0.0,0.0,66,0.00,,---,0.00,VWS V14.01,2013-07-05 11:36:00,
2013-07-05 06:37:00,73.2,61.2,29.92,North,0,0.0,0.0,66,0.00,,---,0.00,VWS V14.01,2013-07-05 11:37:00,
2013-07-05 06:38:00,73.2,61.6,29.92,North,0,0.0,0.0,67,0.00,,---,0.00,VWS V14.01,2013-07-05 11:38:00,
2013-07-05 06:39:00,73.1,61.5,29.91,North,0,0.0,0.0,67,0.00,,---,0.00,VWS V14.01,2013-07-05 11:39:00,
2013-07-05 06:40:00,73.1,61.5,29.92,North,0,0.0,0.0,67,0.00,,---,0.00,VWS V14.01,2013-07-05 11:40:00,
2013-07-05 06:41:00,73.1,61.5,29.92,North,0,0.0,0.0,67,0.00,,---,0.00,VWS V14.01,2013-07-05 11:41:00,
2013-07-05 06:44:00,73.0,61.8,29.92,North,0,0.0,0.0,68,0.00,,---,0.00,VWS V14.01,2013-07-05 11:44:00,
2013-07-05 06:45:00,73.1,61.5,29.91,North,0,0.0,0.0,67,0.00,,---,0.00,VWS V14.01,2013-07-05 11:45:00,
2013-07-05 06:46:00,73.0,61.4,29.91,North,0,0.0,0.0,67,0.00,,---,0.00,VWS V14.01,2013-07-05 11:46:00,
2013-07-05 06:47:00,73.0,61.8,29.92,North,0,0.0,0.0,68,0.00,,---,0.00,VWS V14.01,2013-07-05 11:47:00,
2013-07-05 06:49:00,73.0,61.8,29.92,North,0,0.0,0.0,68,0.00,,---,0.00,VWS V14.01,2013-07-05 11:49:00,
2013-07-05 06:51:00,73.0,61.8,29.92,North,0,0.0,0.0,68,0.00,,---,0.00,VWS V14.01,2013-07-05 11:51:00,
2013-07-05 06:52:00,73.0,61.8,29.92,North,0,0.0,0.0,68,0.00,,---,0.00,VWS V14.01,2013-07-05 11:52:00,
2013-07-05 06:53:00,73.0,61.8,29.92,North,0,0.0,0.0,68,0.00,,---,0.00,VWS V14.01,2013-07-05 11:53:00,
2013-07-05 06:54:00,73.0,61.8,29.92,North,0,0.0,0.0,68,0.00,,---,0.00,VWS V14.01,2013-07-05 11:54:00,
2013-07-05 06:55:00,73.0,61.8,29.92,North,0,0.0,0.0,68,0.00,,---,0.00,VWS V14.01,2013-07-05 11:55:00,
2013-07-05 06:59:00,73.0,62.2,29.92,North,0,0.0,0.0,69,0.00,,---,0.00,VWS V14.01,2013-07-05 11:59:00,
2013-07-05 07:00:00,73.0,61.8,29.92,North,0,0.0,0.0,68,0.00,,---,0.00,VWS V14.01,2013-07-05 12:00:00,
2013-07-05 07:01:00,73.0,61.8,29.92,North,0,0.0,0.0,68,0.00,,---,0.00,VWS V14.01,2013-07-05 12:01:00,
2013-07-05 07:02:00,73.0,61.8,29.92,North,0,0.0,0.0,68,0.00,,---,0.00,VWS V14.01,2013-07-05 12:02:00,
2013-07-05 07:03:00,73.0,62.2,29.92,North,0,0.0,0.0,69,0.00,,---,0.00,VWS V14.01,2013-07-05 12:03:00,
2013-07-05 07:04:00,73.1,62.3,29.93,North,0,0.0,0.0,69,0.00,,---,0.00,VWS V14.01,2013-07-05 12:04:00,
2013-07-05 07:07:00,73.0,62.2,29.92,North,0,0.0,0.0,69,0.00,,---,0.00,VWS V14.01,2013-07-05 12:07:00,
2013-07-05 07:08:00,73.1,62.3,29.92,North,0,0.0,0.0,69,0.00,,---,0.00,VWS V14.01,2013-07-05 12:08:00,
2013-07-05 07:09:00,73.2,62.4,29.93,North,0,0.0,0.0,69,0.00,,---,0.00,VWS V14.01,2013-07-05 12:09:00,
2013-07-05 07:10:00,73.1,62.3,29.93,North,0,0.0,0.0,69,0.00,,---,0.00,VWS V14.01,2013-07-05 12:10:00,
2013-07-05 07:12:00,73.1,62.3,29.93,North,0,0.0,0.0,69,0.00,,---,0.00,VWS V14.01,2013-07-05 12:12:00,
2013-07-05 07:14:00,73.4,62.6,29.92,North,0,0.0,0.0,69,0.00,,---,0.00,VWS V14.01,2013-07-05 12:14:00,
2013-07-05 07:15:00,73.2,62.4,29.93,North,0,0.0,0.0,69,0.00,,---,0.00,VWS V14.01,2013-07-05 12:15:00,
2013-07-05 07:16:00,73.2,62.4,29.93,North,0,0.0,0.0,69,0.00,,---,0.00,VWS V14.01,2013-07-05 12:16:00,
2013-07-05 07:17:00,73.3,62.5,29.93,North,0,0.0,0.0,69,0.00,,---,0.00,VWS V14.01,2013-07-05 12:17:00,
2013-07-05 07:19:00,73.8,63.4,29.93,North,0,0.0,0.0,70,0.00,,---,0.00,VWS V14.01,2013-07-05 12:19:00,
2013-07-05 07:21:00,73.5,63.1,29.92,North,0,0.0,0.0,70,0.00,,---,0.00,VWS V14.01,2013-07-05 12:21:00,
2013-07-05 07:22:00,73.6,63.2,29.92,North,0,0.0,0.0,70,0.00,,---,0.00,VWS V14.01,2013-07-05 12:22:00,
2013-07-05 07:23:00,73.7,63.3,29.93,North,0,0.0,0.0,70,0.00,,---,0.00,VWS V14.01,2013-07-05 12:23:00,
2013-07-05 07:24:00,73.8,63.4,29.93,North,0,0.0,0.0,70,0.00,,---,0.00,VWS V14.01,2013-07-05 12:24:00,
2013-07-05 07:25:00,74.3,63.9,29.93,North,0,0.0,0.0,70,0.00,,---,0.00,VWS V14.01,2013-07-05 12:25:00,
2013-07-05 07:26:00,73.9,63.5,29.93,North,0,0.0,0.0,70,0.00,,---,0.00,VWS V14.01,2013-07-05 12:26:00,
2013-07-05 07:27:00,74.0,63.2,29.93,North,0,0.0,0.0,69,0.00,,---,0.00,VWS V14.01,2013-07-05 12:27:00,
2013-07-05 07:29:00,74.2,63.8,29.93,North,0,0.0,0.0,70,0.00,,---,0.00,VWS V14.01,2013-07-05 12:29:00,
2013-07-05 07:30:00,74.7,63.9,29.93,North,0,0.0,0.0,69,0.00,,---,0.00,VWS V14.01,2013-07-05 12:30:00,
2013-07-05 07:31:00,74.3,63.5,29.93,North,0,0.0,0.0,69,0.00,,---,0.00,VWS V14.01,2013-07-05 12:31:00,
2013-07-05 07:32:00,74.4,64.0,29.93,North,0,0.0,0.0,70,0.00,,---,0.00,VWS V14.01,2013-07-05 12:32:00,
2013-07-05 07:33:00,74.5,64.1,29.93,North,0,0.0,0.0,70,0.00,,---,0.00,VWS V14.01,2013-07-05 12:33:00,
2013-07-05 07:34:00,74.6,64.2,29.93,North,0,0.0,0.0,70,0.00,,---,0.00,VWS V14.01,2013-07-05 12:34:00,
2013-07-05 07:35:00,75.2,64.8,29.94,North,0,0.0,0.0,70,0.00,,---,0.00,VWS V14.01,2013-07-05 12:35:00,
2013-07-05 07:36:00,74.7,63.9,29.93,North,0,0.0,0.0,69,0.00,,---,0.00,VWS V14.01,2013-07-05 12:36:00,
2013-07-05 07:37:00,74.8,64.0,29.93,North,0,0.0,0.0,69,0.00,,---,0.00,VWS V14.01,2013-07-05 12:37:00,
2013-07-05 07:38:00,74.9,64.5,29.93,North,0,0.0,0.0,70,0.00,,---,0.00,VWS V14.01,2013-07-05 12:38:00,
2013-07-05 07:40:00,75.7,65.2,29.94,North,0,0.0,0.0,70,0.00,,---,0.00,VWS V14.01,2013-07-05 12:40:00,
2013-07-05 07:41:00,75.2,64.8,29.94,North,0,0.0,0.0,70,0.00,,---,0.00,VWS V14.01,2013-07-05 12:41:00,
2013-07-05 07:43:00,75.4,64.9,29.94,North,0,0.0,0.0,70,0.00,,---,0.00,VWS V14.01,2013-07-05 12:43:00,
2013-07-05 07:45:00,76.4,65.1,29.94,North,0,0.0,0.0,68,0.00,,---,0.00,VWS V14.01,2013-07-05 12:45:00,
2013-07-05 07:47:00,75.9,65.0,29.94,North,0,0.0,0.0,69,0.00,,---,0.00,VWS V14.01,2013-07-05 12:47:00,
2013-07-05 07:50:00,77.2,65.0,29.94,North,0,0.0,0.0,66,0.00,,---,0.00,VWS V14.01,2013-07-05 12:50:00,
2013-07-05 07:53:00,76.7,64.9,29.94,North,0,0.0,0.0,67,0.00,,---,0.00,VWS V14.01,2013-07-05 12:53:00,
2013-07-05 07:55:00,78.0,65.7,29.94,North,0,0.0,0.0,66,0.00,,---,0.00,VWS V14.01,2013-07-05 12:55:00,
2013-07-05 07:56:00,77.3,65.1,29.94,North,0,0.0,0.0,66,0.00,,---,0.00,VWS V14.01,2013-07-05 12:56:00,
2013-07-05 07:59:00,77.7,65.4,29.94,North,0,0.0,0.0,66,0.00,,---,0.00,VWS V14.01,2013-07-05 12:59:00,
2013-07-05 08:00:00,78.8,66.1,29.94,North,0,0.0,0.0,65,0.00,,---,0.00,VWS V14.01,2013-07-05 13:00:00,
2013-07-05 08:01:00,78.0,65.7,29.94,North,0,0.0,0.0,66,0.00,,---,0.00,VWS V14.01,2013-07-05 13:01:00,
2013-07-05 08:02:00,78.2,65.5,29.94,North,0,0.0,0.0,65,0.00,,---,0.00,VWS V14.01,2013-07-05 13:02:00,
2013-07-05 08:03:00,78.4,65.7,29.94,North,0,0.0,0.0,65,0.00,,---,0.00,VWS V14.01,2013-07-05 13:03:00,
2013-07-05 08:05:00,79.5,66.3,29.94,North,0,0.0,0.0,64,0.00,,---,0.00,VWS V14.01,2013-07-05 13:05:00,
2013-07-05 08:07:00,78.9,66.2,29.94,North,0,0.0,0.0,65,0.00,,---,0.00,VWS V14.01,2013-07-05 13:07:00,
2013-07-05 08:09:00,79.3,66.5,29.94,North,0,0.0,0.0,65,0.00,,---,0.00,VWS V14.01,2013-07-05 13:09:00,
2013-07-05 08:10:00,80.2,66.5,29.94,North,0,0.0,0.0,63,0.00,,---,0.00,VWS V14.01,2013-07-05 13:10:00,
2013-07-05 08:15:00,80.8,66.6,29.95,North,0,0.0,0.0,62,0.00,,---,0.00,VWS V14.01,2013-07-05 13:15:00,
2013-07-05 08:17:00,80.3,66.1,29.94,North,0,0.0,0.0,62,0.00,,---,0.00,VWS V14.01,2013-07-05 13:17:00,
2013-07-05 08:18:00,80.5,66.8,29.94,North,0,0.0,0.0,63,0.00,,---,0.00,VWS V14.01,2013-07-05 13:18:00,
2013-07-05 08:20:00,81.2,66.9,29.95,North,0,0.0,0.0,62,0.00,,---,0.00,VWS V14.01,2013-07-05 13:20:00,
2013-07-05 08:22:00,80.9,66.2,29.95,North,0,0.0,0.0,61,0.00,,---,0.00,VWS V14.01,2013-07-05 13:22:00,
2013-07-05 08:24:00,81.1,66.9,29.95,North,0,0.0,0.0,62,0.00,,---,0.00,VWS V14.01,2013-07-05 13:24:00,
2013-07-05 08:25:00,81.6,65.9,29.95,North,0,0.0,0.0,59,0.00,,---,0.00,VWS V14.01,2013-07-05 13:25:00,
2013-07-05 08:27:00,81.3,67.1,29.95,North,0,0.0,0.0,62,0.00,,---,0.00,VWS V14.01,2013-07-05 13:27:00,
2013-07-05 08:28:00,81.4,66.7,29.95,North,0,0.0,0.0,61,0.00,,---,0.00,VWS V14.01,2013-07-05 13:28:00,
2013-07-05 08:29:00,81.5,66.8,29.95,North,0,0.0,0.0,61,0.00,,---,0.00,VWS V14.01,2013-07-05 13:29:00,
2013-07-05 08:31:00,82.1,65.9,29.95,North,0,0.0,0.0,58,0.00,,---,0.00,VWS V14.01,2013-07-05 13:31:00,
2013-07-05 08:32:00,81.7,66.5,29.95,North,0,0.0,0.0,60,0.00,,---,0.00,VWS V14.01,2013-07-05 13:32:00,
2013-07-05 08:34:00,81.9,65.7,29.96,North,0,0.0,0.0,58,0.00,,---,0.00,VWS V14.01,2013-07-05 13:34:00,
2013-07-05 08:35:00,82.1,65.9,29.95,North,0,0.0,0.0,58,0.00,,---,0.00,VWS V14.01,2013-07-05 13:35:00,
2013-07-05 08:36:00,82.7,65.9,29.96,North,0,0.0,0.0,57,0.00,,---,0.00,VWS V14.01,2013-07-05 13:36:00,
2013-07-05 08:38:00,82.4,66.7,29.95,North,0,0.0,0.0,59,0.00,,---,0.00,VWS V14.01,2013-07-05 13:38:00,
2013-07-05 08:39:00,82.5,66.2,29.95,North,0,0.0,0.0,58,0.00,,---,0.00,VWS V14.01,2013-07-05 13:39:00,
2013-07-05 08:40:00,82.5,66.2,29.95,North,0,0.0,0.0,58,0.00,,---,0.00,VWS V14.01,2013-07-05 13:40:00,
2013-07-05 08:41:00,83.3,66.5,29.96,North,0,0.0,0.0,57,0.00,,---,0.00,VWS V14.01,2013-07-05 13:41:00,
2013-07-05 08:42:00,82.8,66.5,29.96,North,0,0.0,0.0,58,0.00,,---,0.00,VWS V14.01,2013-07-05 13:42:00,
2013-07-05 08:46:00,83.8,66.4,29.96,North,0,0.0,0.0,56,0.00,,---,0.00,VWS V14.01,2013-07-05 13:46:00,
2013-07-05 08:47:00,83.4,66.6,29.96,North,0,0.0,0.0,57,0.00,,---,0.00,VWS V14.01,2013-07-05 13:47:00,
2013-07-05 08:49:00,83.6,65.7,29.96,North,0,0.0,0.0,55,0.00,,---,0.00,VWS V14.01,2013-07-05 13:49:00,
2013-07-05 08:50:00,83.7,66.3,29.96,North,0,0.0,0.0,56,0.00,,---,0.00,VWS V14.01,2013-07-05 13:50:00,
2013-07-05 08:51:00,84.2,65.8,29.96,North,0,0.0,0.0,54,0.00,,---,0.00,VWS V14.01,2013-07-05 13:51:00,
2013-07-05 08:53:00,83.9,67.1,29.96,North,0,0.0,0.0,57,0.00,,---,0.00,VWS V14.01,2013-07-05 13:53:00,
2013-07-05 08:55:00,84.1,66.2,29.96,North,0,0.0,0.0,55,0.00,,---,0.00,VWS V14.01,2013-07-05 13:55:00,
2013-07-05 08:56:00,84.3,65.9,29.96,North,0,0.0,0.0,54,0.00,,---,0.00,VWS V14.01,2013-07-05 13:56:00,
2013-07-05 08:57:00,84.2,66.3,29.96,North,0,0.0,0.0,55,0.00,,---,0.00,VWS V14.01,2013-07-05 13:57:00,
2013-07-05 08:58:00,84.3,66.4,29.96,North,0,0.0,0.0,55,0.00,,---,0.00,VWS V14.01,2013-07-05 13:58:00,
2013-07-05 08:59:00,84.3,66.4,29.96,North,0,0.0,0.0,55,0.00,,---,0.00,VWS V14.01,2013-07-05 13:59:00,
2013-07-05 09:01:00,84.6,66.1,29.96,North,0,0.0,0.0,54,0.00,,---,0.00,VWS V14.01,2013-07-05 14:01:00,
2013-07-05 09:02:00,84.4,65.9,29.96,North,0,0.0,0.0,54,0.00,,---,0.00,VWS V14.01,2013-07-05 14:02:00,
2013-07-05 09:03:00,84.5,66.1,29.96,North,0,0.0,0.0,54,0.00,,---,0.00,VWS V14.01,2013-07-05 14:03:00,
2013-07-05 09:04:00,84.5,66.1,29.96,North,0,0.0,0.0,54,0.00,,---,0.00,VWS V14.01,2013-07-05 14:04:00,
2013-07-05 09:06:00,85.1,66.1,29.96,North,0,0.0,0.0,53,0.00,,---,0.00,VWS V14.01,2013-07-05 14:06:00,
2013-07-05 09:07:00,84.7,66.2,29.96,North,0,0.0,0.0,54,0.00,,---,0.00,VWS V14.01,2013-07-05 14:07:00,
2013-07-05 09:09:00,84.8,66.3,29.96,North,0,0.0,0.0,54,0.00,,---,0.00,VWS V14.01,2013-07-05 14:09:00,
2013-07-05 09:10:00,84.9,66.9,29.96,North,0,0.0,0.0,55,0.00,,---,0.00,VWS V14.01,2013-07-05 14:10:00,
2013-07-05 09:11:00,85.5,65.9,29.96,North,0,0.0,0.0,52,0.00,,---,0.00,VWS V14.01,2013-07-05 14:11:00,
2013-07-05 09:12:00,85.1,66.1,29.96,North,0,0.0,0.0,53,0.00,,---,0.00,VWS V14.01,2013-07-05 14:12:00,
2013-07-05 09:13:00,85.2,66.7,29.96,North,0,0.0,0.0,54,0.00,,---,0.00,VWS V14.01,2013-07-05 14:13:00,
2013-07-05 09:14:00,85.3,66.2,29.96,North,0,0.0,0.0,53,0.00,,---,0.00,VWS V14.01,2013-07-05 14:14:00,
2013-07-05 09:15:00,85.4,65.8,29.96,North,0,0.0,0.0,52,0.00,,---,0.00,VWS V14.01,2013-07-05 14:15:00,
2013-07-05 09:16:00,85.9,66.2,29.96,North,0,0.0,0.0,52,0.00,,---,0.00,VWS V14.01,2013-07-05 14:16:00,
2013-07-05 09:17:00,85.5,65.9,29.96,North,0,0.0,0.0,52,0.00,,---,0.00,VWS V14.01,2013-07-05 14:17:00,
2013-07-05 09:19:00,85.7,66.6,29.96,North,0,0.0,0.0,53,0.00,,---,0.00,VWS V14.01,2013-07-05 14:19:00,
2013-07-05 09:21:00,86.4,66.2,29.96,North,0,0.0,0.0,51,0.00,,---,0.00,VWS V14.01,2013-07-05 14:21:00,
2013-07-05 09:23:00,86.1,66.4,29.96,North,0,0.0,0.0,52,0.00,,---,0.00,VWS V14.01,2013-07-05 14:23:00,
2013-07-05 09:24:00,86.2,66.5,29.96,North,0,0.0,0.0,52,0.00,,---,0.00,VWS V14.01,2013-07-05 14:24:00,
2013-07-05 09:25:00,86.2,66.0,29.96,North,0,0.0,0.0,51,0.00,,---,0.00,VWS V14.01,2013-07-05 14:25:00,
2013-07-05 09:26:00,86.9,66.0,29.96,North,0,0.0,0.0,50,0.00,,---,0.00,VWS V14.01,2013-07-05 14:26:00,
2013-07-05 09:30:00,86.7,66.4,29.96,North,0,0.0,0.0,51,0.00,,---,0.00,VWS V14.01,2013-07-05 14:30:00,
2013-07-05 09:31:00,87.3,65.2,29.96,North,0,0.0,0.0,48,0.00,,---,0.00,VWS V14.01,2013-07-05 14:31:00,
2013-07-05 09:32:00,86.9,66.0,29.96,North,0,0.0,0.0,50,0.00,,---,0.00,VWS V14.01,2013-07-05 14:32:00,
2013-07-05 09:35:00,87.2,65.1,29.96,North,0,0.0,0.0,48,0.00,,---,0.00,VWS V14.01,2013-07-05 14:35:00,
2013-07-05 09:36:00,87.8,66.3,29.96,North,0,0.0,0.0,49,0.00,,---,0.00,VWS V14.01,2013-07-05 14:36:00,
2013-07-05 09:37:00,87.3,65.2,29.96,North,0,0.0,0.0,48,0.00,,---,0.00,VWS V14.01,2013-07-05 14:37:00,
2013-07-05 09:38:00,87.4,65.3,29.96,North,0,0.0,0.0,48,0.00,,---,0.00,VWS V14.01,2013-07-05 14:38:00,
2013-07-05 09:39:00,87.5,66.0,29.96,North,0,0.0,0.0,49,0.00,,---,0.00,VWS V14.01,2013-07-05 14:39:00,
2013-07-05 09:41:00,88.3,66.7,29.96,North,0,0.0,0.0,49,0.00,,---,0.00,VWS V14.01,2013-07-05 14:41:00,
2013-07-05 09:42:00,87.8,66.3,29.96,North,0,0.0,0.0,49,0.00,,---,0.00,VWS V14.01,2013-07-05 14:42:00,
2013-07-05 09:43:00,87.9,65.8,29.96,North,0,0.0,0.0,48,0.00,,---,0.00,VWS V14.01,2013-07-05 14:43:00,
2013-07-05 09:46:00,88.6,67.0,29.96,North,0,0.0,0.0,49,0.00,,---,0.00,VWS V14.01,2013-07-05 14:46:00,
2013-07-05 09:47:00,88.3,66.7,29.96,North,0,0.0,0.0,49,0.00,,---,0.00,VWS V14.01,2013-07-05 14:47:00,
2013-07-05 09:50:00,88.5,65.7,29.96,North,0,0.0,0.0,47,0.00,,---,0.00,VWS V14.01,2013-07-05 14:50:00,
2013-07-05 09:52:00,89.0,65.6,29.96,North,0,0.0,0.0,46,0.00,,---,0.00,VWS V14.01,2013-07-05 14:52:00,
2013-07-05 09:55:00,88.9,66.1,29.96,North,0,0.0,0.0,47,0.00,,---,0.00,VWS V14.01,2013-07-05 14:55:00,
2013-07-05 09:56:00,88.9,65.5,29.96,North,0,0.0,0.0,46,0.00,,---,0.00,VWS V14.01,2013-07-05 14:56:00,
2013-07-05 09:57:00,89.0,66.2,29.95,North,0,0.0,0.0,47,0.00,,---,0.00,VWS V14.01,2013-07-05 14:57:00,
2013-07-05 09:58:00,89.0,65.6,29.96,North,0,0.0,0.0,46,0.00,,---,0.00,VWS V14.01,2013-07-05 14:58:00,
2013-07-05 10:00:00,89.0,66.2,29.95,North,0,0.0,0.0,47,0.00,,---,0.00,VWS V14.01,2013-07-05 15:00:00,
2013-07-05 10:02:00,89.2,65.7,29.95,North,0,0.0,0.0,46,0.00,,---,0.00,VWS V14.01,2013-07-05 15:02:00,
2013-07-05 10:03:00,89.1,66.3,29.95,North,0,0.0,0.0,47,0.00,,---,0.00,VWS V14.01,2013-07-05 15:03:00,
2013-07-05 10:04:00,89.1,65.6,29.95,North,0,0.0,0.0,46,0.00,,---,0.00,VWS V14.01,2013-07-05 15:04:00,
2013-07-05 10:07:00,89.4,67.1,29.95,North,0,0.0,0.0,48,0.00,,---,0.00,VWS V14.01,2013-07-05 15:07:00,
2013-07-05 10:08:00,89.2,65.7,29.95,North,0,0.0,0.0,46,0.00,,---,0.00,VWS V14.01,2013-07-05 15:08:00,
2013-07-05 10:09:00,89.2,67.0,29.95,North,0,0.0,0.0,48,0.00,,---,0.00,VWS V14.01,2013-07-05 15:09:00,
2013-07-05 10:10:00,89.3,66.4,29.94,North,0,0.0,0.0,47,0.00,,---,0.00,VWS V14.01,2013-07-05 15:10:00,
2013-07-05 10:11:00,89.3,65.8,29.95,North,0,0.0,0.0,46,0.00,,---,0.00,VWS V14.01,2013-07-05 15:11:00,
2013-07-05 10:12:00,89.6,66.1,29.95,North,0,0.0,0.0,46,0.00,,---,0.00,VWS V14.01,2013-07-05 15:12:00,
2013-07-05 10:13:00,89.3,67.1,29.95,North,0,0.0,0.0,48,0.00,,---,0.00,VWS V14.01,2013-07-05 15:13:00,
2013-07-05 10:15:00,89.5,66.6,29.95,North,0,0.0,0.0,47,0.00,,---,0.00,VWS V14.01,2013-07-05 15:15:00,
2013-07-05 10:16:00,89.5,66.6,29.95,North,0,0.0,0.0,47,0.00,,---,0.00,VWS V14.01,2013-07-05 15:16:00,
2013-07-05 10:17:00,89.6,66.7,29.95,North,0,0.0,0.0,47,0.00,,---,0.00,VWS V14.01,2013-07-05 15:17:00,
2013-07-05 10:18:00,89.9,66.4,29.95,North,0,0.0,0.0,46,0.00,,---,0.00,VWS V14.01,2013-07-05 15:18:00,
2013-07-05 10:19:00,89.7,66.2,29.95,North,0,0.0,0.0,46,0.00,,---,0.00,VWS V14.01,2013-07-05 15:19:00,
2013-07-05 10:20:00,89.7,66.2,29.95,North,0,0.0,0.0,46,0.00,,---,0.00,VWS V14.01,2013-07-05 15:20:00,
2013-07-05 10:23:00,89.9,65.7,29.94,North,0,0.0,0.0,45,0.00,,---,0.00,VWS V14.01,2013-07-05 15:23:00,
2013-07-05 10:24:00,89.9,65.7,29.95,North,0,0.0,0.0,45,0.00,,---,0.00,VWS V14.01,2013-07-05 15:24:00,
2013-07-05 10:25:00,89.9,66.4,29.94,North,0,0.0,0.0,46,0.00,,---,0.00,VWS V14.01,2013-07-05 15:25:00,
2013-07-05 10:26:00,89.9,65.1,29.94,North,0,0.0,0.0,44,0.00,,---,0.00,VWS V14.01,2013-07-05 15:26:00,
2013-07-05 10:28:00,90.1,65.9,29.94,North,0,0.0,0.0,45,0.00,,---,0.00,VWS V14.01,2013-07-05 15:28:00,
2013-07-05 10:29:00,90.0,65.8,29.94,North,0,0.0,0.0,45,0.00,,---,0.00,VWS V14.01,2013-07-05 15:29:00,
2013-07-05 10:30:00,90.0,65.8,29.94,North,0,0.0,0.0,45,0.00,,---,0.00,VWS V14.01,2013-07-05 15:30:00,
2013-07-05 10:33:00,90.4,66.2,29.94,North,0,0.0,0.0,45,0.00,,---,0.00,VWS V14.01,2013-07-05 15:33:00,
2013-07-05 10:35:00,90.2,66.0,29.94,North,0,0.0,0.0,45,0.00,,---,0.00,VWS V14.01,2013-07-05 15:35:00,
2013-07-05 10:36:00,90.3,65.4,29.94,North,0,0.0,0.0,44,0.00,,---,0.00,VWS V14.01,2013-07-05 15:36:00,
2013-07-05 10:37:00,90.3,66.1,29.95,North,0,0.0,0.0,45,0.00,,---,0.00,VWS V14.01,2013-07-05 15:37:00,
2013-07-05 10:38:00,90.7,65.8,29.94,North,0,0.0,0.0,44,0.00,,---,0.00,VWS V14.01,2013-07-05 15:38:00,
2013-07-05 10:40:00,90.5,65.0,29.94,North,0,0.0,0.0,43,0.00,,---,0.00,VWS V14.01,2013-07-05 15:40:00,
2013-07-05 10:42:00,90.6,65.1,29.94,North,0,0.0,0.0,43,0.00,,---,0.00,VWS V14.01,2013-07-05 15:42:00,
2013-07-05 10:43:00,91.0,65.4,29.94,North,0,0.0,0.0,43,0.00,,---,0.00,VWS V14.01,2013-07-05 15:43:00,
2013-07-05 10:45:00,90.8,65.9,29.94,North,0,0.0,0.0,44,0.00,,---,0.00,VWS V14.01,2013-07-05 15:45:00,
2013-07-05 10:46:00,90.8,65.9,29.94,North,0,0.0,0.0,44,0.00,,---,0.00,VWS V14.01,2013-07-05 15:46:00,
2013-07-05 10:47:00,90.9,65.3,29.94,North,0,0.0,0.0,43,0.00,,---,0.00,VWS V14.01,2013-07-05 15:47:00,
2013-07-05 10:48:00,91.3,65.7,29.94,North,0,0.0,0.0,43,0.00,,---,0.00,VWS V14.01,2013-07-05 15:48:00,
2013-07-05 10:50:00,91.4,65.8,29.94,North,0,0.0,0.0,43,0.00,,---,0.00,VWS V14.01,2013-07-05 15:50:00,
2013-07-05 10:54:00,91.3,65.7,29.94,North,0,0.0,0.0,43,0.00,,---,0.00,VWS V14.01,2013-07-05 15:54:00,
2013-07-05 10:55:00,91.7,65.4,29.94,North,0,0.0,0.0,42,0.00,,---,0.00,VWS V14.01,2013-07-05 15:55:00,
2013-07-05 10:56:00,91.4,65.1,29.94,North,0,0.0,0.0,42,0.00,,---,0.00,VWS V14.01,2013-07-05 15:56:00,
2013-07-05 10:57:00,91.5,65.2,29.94,North,0,0.0,0.0,42,0.00,,---,0.00,VWS V14.01,2013-07-05 15:57:00,
2013-07-05 10:58:00,91.6,65.3,29.94,North,0,0.0,0.0,42,0.00,,---,0.00,VWS V14.01,2013-07-05 15:58:00,
2013-07-05 10:59:00,91.6,65.3,29.94,North,0,0.0,0.0,42,0.00,,---,0.00,VWS V14.01,2013-07-05 15:59:00,
2013-07-05 11:00:00,92.0,66.3,29.93,North,0,0.0,0.0,43,0.00,,---,0.00,VWS V14.01,2013-07-05 16:00:00,
2013-07-05 11:03:00,92.0,65.6,29.94,North,0,0.0,0.0,42,0.00,,---,0.00,VWS V14.01,2013-07-05 16:03:00,
2013-07-05 11:04:00,92.0,65.6,29.94,North,0,0.0,0.0,42,0.00,,---,0.00,VWS V14.01,2013-07-05 16:04:00,
2013-07-05 11:05:00,92.2,65.8,29.94,North,0,0.0,0.0,42,0.00,,---,0.00,VWS V14.01,2013-07-05 16:05:00,
2013-07-05 11:06:00,92.1,65.0,29.93,North,0,0.0,0.0,41,0.00,,---,0.00,VWS V14.01,2013-07-05 16:06:00,
2013-07-05 11:08:00,92.1,65.7,29.94,North,0,0.0,0.0,42,0.00,,---,0.00,VWS V14.01,2013-07-05 16:08:00,
2013-07-05 11:09:00,92.2,65.8,29.94,North,0,0.0,0.0,42,0.00,,---,0.00,VWS V14.01,2013-07-05 16:09:00,
2013-07-05 11:10:00,92.5,66.1,29.94,North,0,0.0,0.0,42,0.00,,---,0.00,VWS V14.01,2013-07-05 16:10:00,
2013-07-05 11:13:00,92.4,65.3,29.94,North,0,0.0,0.0,41,0.00,,---,0.00,VWS V14.01,2013-07-05 16:13:00,
2013-07-05 11:14:00,92.4,66.0,29.94,North,0,0.0,0.0,42,0.00,,---,0.00,VWS V14.01,2013-07-05 16:14:00,
2013-07-05 11:15:00,92.7,65.6,29.94,North,0,0.0,0.0,41,0.00,,---,0.00,VWS V14.01,2013-07-05 16:15:00,
2013-07-05 11:17:00,92.5,67.4,29.94,North,0,0.0,0.0,44,0.00,,---,0.00,VWS V14.01,2013-07-05 16:17:00,
2013-07-05 11:18:00,92.6,65.5,29.94,North,0,0.0,0.0,41,0.00,,---,0.00,VWS V14.01,2013-07-05 16:18:00,
2013-07-05 11:20:00,93.0,66.5,29.94,North,0,0.0,0.0,42,0.00,,---,0.00,VWS V14.01,2013-07-05 16:20:00,
2013-07-05 11:21:00,92.7,65.6,29.94,North,0,0.0,0.0,41,0.00,,---,0.00,VWS V14.01,2013-07-05 16:21:00,
2013-07-05 11:23:00,92.8,65.7,29.94,North,0,0.0,0.0,41,0.00,,---,0.00,VWS V14.01,2013-07-05 16:23:00,
2013-07-05 11:25:00,93.2,65.3,29.94,North,0,0.0,0.0,40,0.00,,---,0.00,VWS V14.01,2013-07-05 16:25:00,
2013-07-05 11:30:00,93.3,65.4,29.94,North,0,0.0,0.0,40,0.00,,---,0.00,VWS V14.01,2013-07-05 16:30:00,
2013-07-05 11:32:00,93.3,65.4,29.94,North,0,0.0,0.0,40,0.00,,---,0.00,VWS V14.01,2013-07-05 16:32:00,
2013-07-05 11:34:00,93.3,65.4,29.94,North,0,0.0,0.0,40,0.00,,---,0.00,VWS V14.01,2013-07-05 16:34:00,
2013-07-05 11:35:00,93.5,65.6,29.94,North,0,0.0,0.0,40,0.00,,---,0.00,VWS V14.01,2013-07-05 16:35:00,
2013-07-05 11:36:00,93.3,65.4,29.94,North,0,0.0,0.0,40,0.00,,---,0.00,VWS V14.01,2013-07-05 16:36:00,
2013-07-05 11:38:00,93.3,65.4,29.94,North,0,0.0,0.0,40,0.00,,---,0.00,VWS V14.01,2013-07-05 16:38:00,
2013-07-05 11:39:00,93.3,64.7,29.94,North,0,0.0,0.0,39,0.00,,---,0.00,VWS V14.01,2013-07-05 16:39:00,
2013-07-05 11:40:00,93.8,65.1,29.93,North,0,0.0,0.0,39,0.00,,---,0.00,VWS V14.01,2013-07-05 16:40:00,
2013-07-05 11:44:00,93.7,65.8,29.93,North,0,0.0,0.0,40,0.00,,---,0.00,VWS V14.01,2013-07-05 16:44:00,
2013-07-05 11:45:00,94.1,65.4,29.94,North,0,0.0,0.0,39,0.00,,---,0.00,VWS V14.01,2013-07-05 16:45:00,
2013-07-05 11:47:00,93.8,65.8,29.93,North,0,0.0,0.0,40,0.00,,---,0.00,VWS V14.01,2013-07-05 16:47:00,
2013-07-05 11:48:00,93.9,65.2,29.93,North,0,0.0,0.0,39,0.00,,---,0.00,VWS V14.01,2013-07-05 16:48:00,
2013-07-05 11:49:00,94.0,66.7,29.94,North,0,0.0,0.0,41,0.00,,---,0.00,VWS V14.01,2013-07-05 16:49:00,
2013-07-05 11:50:00,94.3,67.0,29.93,North,0,0.0,0.0,41,0.00,,---,0.00,VWS V14.01,2013-07-05 16:50:00,
2013-07-05 11:51:00,94.1,65.4,29.94,North,0,0.0,0.0,39,0.00,,---,0.00,VWS V14.01,2013-07-05 16:51:00,
2013-07-05 11:52:00,94.1,66.1,29.93,North,0,0.0,0.0,40,0.00,,---,0.00,VWS V14.01,2013-07-05 16:52:00,
2013-07-05 11:55:00,94.5,65.7,29.93,North,0,0.0,0.0,39,0.00,,---,0.00,VWS V14.01,2013-07-05 16:55:00,
2013-07-05 11:56:00,94.3,67.0,29.93,North,0,0.0,0.0,41,0.00,,---,0.00,VWS V14.01,2013-07-05 16:56:00,
2013-07-05 11:57:00,94.3,65.6,29.93,North,0,0.0,0.0,39,0.00,,---,0.00,VWS V14.01,2013-07-05 16:57:00,
2013-07-05 11:58:00,94.4,66.4,29.93,North,0,0.0,0.0,40,0.00,,---,0.00,VWS V14.01,2013-07-05 16:58:00,
2013-07-05 12:00:00,94.7,67.4,29.93,North,0,0.0,0.0,41,0.00,,---,0.00,VWS V14.01,2013-07-05 17:00:00,
2013-07-05 12:03:00,94.6,67.3,29.93,North,0,0.0,0.0,41,0.00,,---,0.00,VWS V14.01,2013-07-05 17:03:00,
2013-07-05 12:05:00,94.8,65.3,29.93,North,0,0.0,0.0,38,0.00,,---,0.00,VWS V14.01,2013-07-05 17:05:00,
2013-07-05 12:06:00,94.7,67.4,29.93,North,0,0.0,0.0,41,0.00,,---,0.00,VWS V14.01,2013-07-05 17:06:00,
2013-07-05 12:07:00,94.7,65.9,29.93,North,0,0.0,0.0,39,0.00,,---,0.00,VWS V14.01,2013-07-05 17:07:00,
2013-07-05 12:09:00,94.7,65.9,29.92,North,0,0.0,0.0,39,0.00,,---,0.00,VWS V14.01,2013-07-05 17:09:00,
2013-07-05 12:10:00,95.2,66.4,29.93,North,0,0.0,0.0,39,0.00,,---,0.00,VWS V14.01,2013-07-05 17:10:00,
2013-07-05 12:11:00,94.8,65.2,29.93,North,0,0.0,0.0,38,0.00,,---,0.00,VWS V14.01,2013-07-05 17:11:00,
2013-07-05 12:14:00,95.0,66.2,29.93,North,0,0.0,0.0,39,0.00,,---,0.00,VWS V14.01,2013-07-05 17:14:00,
2013-07-05 12:15:00,95.4,66.5,29.93,North,0,0.0,0.0,39,0.00,,---,0.00,VWS V14.01,2013-07-05 17:15:00,
2013-07-05 12:16:00,95.2,66.4,29.93,North,0,0.0,0.0,39,0.00,,---,0.00,VWS V14.01,2013-07-05 17:16:00,
2013-07-05 12:17:00,95.2,65.6,29.92,North,0,0.0,0.0,38,0.00,,---,0.00,VWS V14.01,2013-07-05 17:17:00,
2013-07-05 12:18:00,95.3,65.7,29.93,North,0,0.0,0.0,38,0.00,,---,0.00,VWS V14.01,2013-07-05 17:18:00,
2013-07-05 12:19:00,95.3,65.7,29.93,North,0,0.0,0.0,38,0.00,,---,0.00,VWS V14.01,2013-07-05 17:19:00,
2013-07-05 12:20:00,95.5,65.9,29.92,North,0,0.0,0.0,38,0.00,,---,0.00,VWS V14.01,2013-07-05 17:20:00,
2013-07-05 12:23:00,95.4,65.8,29.92,North,0,0.0,0.0,38,0.00,,---,0.00,VWS V14.01,2013-07-05 17:23:00,
2013-07-05 12:25:00,95.6,68.2,29.92,North,0,0.0,0.0,41,0.00,,---,0.00,VWS V14.01,2013-07-05 17:25:00,
2013-07-05 12:29:00,95.6,66.0,29.93,North,0,0.0,0.0,38,0.00,,---,0.00,VWS V14.01,2013-07-05 17:29:00,
2013-07-05 12:30:00,95.6,66.0,29.92,North,0,0.0,0.0,38,0.00,,---,0.00,VWS V14.01,2013-07-05 17:30:00,
2013-07-05 12:31:00,95.6,68.2,29.92,North,0,0.0,0.0,41,0.00,,---,0.00,VWS V14.01,2013-07-05 17:31:00,
2013-07-05 12:32:00,95.6,68.2,29.93,North,0,0.0,0.0,41,0.00,,---,0.00,VWS V14.01,2013-07-05 17:32:00,
2013-07-05 12:33:00,95.6,66.0,29.92,North,0,0.0,0.0,38,0.00,,---,0.00,VWS V14.01,2013-07-05 17:33:00,
2013-07-05 12:35:00,95.5,65.9,29.92,North,0,0.0,0.0,38,0.00,,---,0.00,VWS V14.01,2013-07-05 17:35:00,
2013-07-05 12:37:00,95.6,66.0,29.92,North,0,0.0,0.0,38,0.00,,---,0.00,VWS V14.01,2013-07-05 17:37:00,
2013-07-05 12:38:00,95.6,66.0,29.92,North,0,0.0,0.0,38,0.00,,---,0.00,VWS V14.01,2013-07-05 17:38:00,
2013-07-05 12:39:00,95.6,66.0,29.92,North,0,0.0,0.0,38,0.00,,---,0.00,VWS V14.01,2013-07-05 17:39:00,
2013-07-05 12:40:00,95.5,65.9,29.92,North,0,0.0,0.0,38,0.00,,---,0.00,VWS V14.01,2013-07-05 17:40:00,
2013-07-05 12:41:00,95.5,65.9,29.92,North,0,0.0,0.0,38,0.00,,---,0.00,VWS V14.01,2013-07-05 17:41:00,
2013-07-05 12:42:00,95.5,65.1,29.92,North,0,0.0,0.0,37,0.00,,---,0.00,VWS V14.01,2013-07-05 17:42:00,
2013-07-05 12:43:00,95.5,66.6,29.92,North,0,0.0,0.0,39,0.00,,---,0.00,VWS V14.01,2013-07-05 17:43:00,
2013-07-05 12:44:00,95.5,65.9,29.92,North,0,0.0,0.0,38,0.00,,---,0.00,VWS V14.01,2013-07-05 17:44:00,
2013-07-05 12:45:00,95.5,66.6,29.92,North,0,0.0,0.0,39,0.00,,---,0.00,VWS V14.01,2013-07-05 17:45:00,
2013-07-05 12:46:00,95.5,65.9,29.92,North,0,0.0,0.0,38,0.00,,---,0.00,VWS V14.01,2013-07-05 17:46:00,
2013-07-05 12:47:00,95.5,65.9,29.92,North,0,0.0,0.0,38,0.00,,---,0.00,VWS V14.01,2013-07-05 17:47:00,
2013-07-05 12:48:00,95.5,65.9,29.91,North,0,0.0,0.0,38,0.00,,---,0.00,VWS V14.01,2013-07-05 17:48:00,
2013-07-05 12:50:00,95.6,65.2,29.91,North,0,0.0,0.0,37,0.00,,---,0.00,VWS V14.01,2013-07-05 17:50:00,
2013-07-05 12:52:00,95.5,65.9,29.91,North,0,0.0,0.0,38,0.00,,---,0.00,VWS V14.01,2013-07-05 17:52:00,
2013-07-05 12:55:00,95.8,66.1,29.91,North,0,0.0,0.0,38,0.00,,---,0.00,VWS V14.01,2013-07-05 17:55:00,
2013-07-05 12:56:00,95.6,65.2,29.91,North,0,0.0,0.0,37,0.00,,---,0.00,VWS V14.01,2013-07-05 17:56:00,
2013-07-05 12:57:00,95.6,66.0,29.91,North,0,0.0,0.0,38,0.00,,---,0.00,VWS V14.01,2013-07-05 17:57:00,
2013-07-05 12:58:00,95.6,66.0,29.91,North,0,0.0,0.0,38,0.00,,---,0.00,VWS V14.01,2013-07-05 17:58:00,
2013-07-05 12:59:00,95.7,66.1,29.91,North,0,0.0,0.0,38,0.00,,---,0.00,VWS V14.01,2013-07-05 17:59:00,
2013-07-05 13:00:00,95.9,66.2,29.91,North,0,0.0,0.0,38,0.00,,---,0.00,VWS V14.01,2013-07-05 18:00:00,
2013-07-05 13:01:00,95.9,65.5,29.91,North,0,0.0,0.0,37,0.00,,---,0.00,VWS V14.01,2013-07-05 18:01:00,
2013-07-05 13:03:00,95.8,66.1,29.91,North,0,0.0,0.0,38,0.00,,---,0.00,VWS V14.01,2013-07-05 18:03:00,
2013-07-05 13:04:00,95.9,65.5,29.91,North,0,0.0,0.0,37,0.00,,---,0.00,VWS V14.01,2013-07-05 18:04:00,
2013-07-05 13:06:00,95.8,65.4,29.91,North,0,0.0,0.0,37,0.00,,---,0.00,VWS V14.01,2013-07-05 18:06:00,
2013-07-05 13:07:00,95.9,67.7,29.91,North,0,0.0,0.0,40,0.00,,---,0.00,VWS V14.01,2013-07-05 18:07:00,
2013-07-05 13:10:00,95.9,64.7,29.91,North,0,0.0,0.0,36,0.00,,---,0.00,VWS V14.01,2013-07-05 18:10:00,
2013-07-05 13:11:00,95.8,65.4,29.90,North,0,0.0,0.0,37,0.00,,---,0.00,VWS V14.01,2013-07-05 18:11:00,
2013-07-05 13:12:00,95.8,65.4,29.91,North,0,0.0,0.0,37,0.00,,---,0.00,VWS V14.01,2013-07-05 18:12:00,
2013-07-05 13:13:00,95.8,66.9,29.91,North,0,0.0,0.0,39,0.00,,---,0.00,VWS V14.01,2013-07-05 18:13:00,
2013-07-05 13:14:00,95.8,66.1,29.91,North,0,0.0,0.0,38,0.00,,---,0.00,VWS V14.01,2013-07-05 18:14:00,
2013-07-05 13:15:00,95.8,65.4,29.91,North,0,0.0,0.0,37,0.00,,---,0.00,VWS V14.01,2013-07-05 18:15:00,
2013-07-05 13:16:00,95.8,64.6,29.91,North,0,0.0,0.0,36,0.00,,---,0.00,VWS V14.01,2013-07-05 18:16:00,
2013-07-05 13:19:00,95.8,65.4,29.91,North,0,0.0,0.0,37,0.00,,---,0.00,VWS V14.01,2013-07-05 18:19:00,
2013-07-05 13:20:00,95.8,64.6,29.91,North,0,0.0,0.0,36,0.00,,---,0.00,VWS V14.01,2013-07-05 18:20:00,
2013-07-05 13:21:00,95.9,64.7,29.91,North,0,0.0,0.0,36,0.00,,---,0.00,VWS V14.01,2013-07-05 18:21:00,
2013-07-05 13:24:00,95.8,64.6,29.91,North,0,0.0,0.0,36,0.00,,---,0.00,VWS V14.01,2013-07-05 18:24:00,
2013-07-05 13:26:00,96.2,65.7,29.90,North,0,0.0,0.0,37,0.00,,---,0.00,VWS V14.01,2013-07-05 18:26:00,
2013-07-05 13:27:00,95.9,67.7,29.91,North,0,0.0,0.0,40,0.00,,---,0.00,VWS V14.01,2013-07-05 18:27:00,
2013-07-05 13:29:00,96.0,67.8,29.91,North,0,0.0,0.0,40,0.00,,---,0.00,VWS V14.01,2013-07-05 18:29:00,
2013-07-05 13:30:00,96.1,67.9,29.91,North,0,0.0,0.0,40,0.00,,---,0.00,VWS V14.01,2013-07-05 18:30:00,
2013-07-05 13:31:00,96.4,65.1,29.90,North,0,0.0,0.0,36,0.00,,---,0.00,VWS V14.01,2013-07-05 18:31:00,
2013-07-05 13:32:00,96.2,64.9,29.90,North,0,0.0,0.0,36,0.00,,---,0.00,VWS V14.01,2013-07-05 18:32:00,
2013-07-05 13:34:00,96.3,65.0,29.90,North,0,0.0,0.0,36,0.00,,---,0.00,VWS V14.01,2013-07-05 18:34:00,
2013-07-05 13:35:00,96.4,65.9,29.90,North,0,0.0,0.0,37,0.00,,---,0.00,VWS V14.01,2013-07-05 18:35:00,
2013-07-05 13:36:00,96.5,64.4,29.90,North,0,0.0,0.0,35,0.00,,---,0.00,VWS V14.01,2013-07-05 18:36:00,
2013-07-05 13:37:00,96.4,64.3,29.90,North,0,0.0,0.0,35,0.00,,---,0.00,VWS V14.01,2013-07-05 18:37:00,
2013-07-05 13:38:00,96.5,64.4,29.90,North,0,0.0,0.0,35,0.00,,---,0.00,VWS V14.01,2013-07-05 18:38:00,
2013-07-05 13:39:00,96.5,63.6,29.90,North,0,0.0,0.0,34,0.00,,---,0.00,VWS V14.01,2013-07-05 18:39:00,
2013-07-05 13:41:00,96.6,63.7,29.90,North,0,0.0,0.0,34,0.00,,---,0.00,VWS V14.01,2013-07-05 18:41:00,
2013-07-05 13:43:00,96.5,65.2,29.90,North,0,0.0,0.0,36,0.00,,---,0.00,VWS V14.01,2013-07-05 18:43:00,
2013-07-05 13:46:00,96.9,65.6,29.90,North,0,0.0,0.0,36,0.00,,---,0.00,VWS V14.01,2013-07-05 18:46:00,
2013-07-05 13:47:00,96.6,63.7,29.90,North,0,0.0,0.0,34,0.00,,---,0.00,VWS V14.01,2013-07-05 18:47:00,
2013-07-05 13:48:00,96.6,64.5,29.90,North,0,0.0,0.0,35,0.00,,---,0.00,VWS V14.01,2013-07-05 18:48:00,
2013-07-05 13:49:00,96.7,64.6,29.90,North,0,0.0,0.0,35,0.00,,---,0.00,VWS V14.01,2013-07-05 18:49:00,
2013-07-05 13:51:00,97.1,66.5,29.90,North,0,0.0,0.0,37,0.00,,---,0.00,VWS V14.01,2013-07-05 18:51:00,
2013-07-05 13:54:00,97.1,66.5,29.90,North,0,0.0,0.0,37,0.00,,---,0.00,VWS V14.01,2013-07-05 18:54:00,
2013-07-05 13:55:00,97.1,64.9,29.90,North,0,0.0,0.0,35,0.00,,---,0.00,VWS V14.01,2013-07-05 18:55:00,
2013-07-05 13:56:00,96.8,65.5,29.89,North,0,0.0,0.0,36,0.00,,---,0.00,VWS V14.01,2013-07-05 18:56:00,
2013-07-05 13:57:00,97.1,66.5,29.90,North,0,0.0,0.0,37,0.00,,---,0.00,VWS V14.01,2013-07-05 18:57:00,
2013-07-05 13:58:00,97.1,65.7,29.89,North,0,0.0,0.0,36,0.00,,---,0.00,VWS V14.01,2013-07-05 18:58:00,
2013-07-05 13:59:00,97.1,65.7,29.89,North,0,0.0,0.0,36,0.00,,---,0.00,VWS V14.01,2013-07-05 18:59:00,
2013-07-05 14:01:00,96.7,64.6,29.89,North,0,0.0,0.0,35,0.00,,---,0.00,VWS V14.01,2013-07-05 19:01:00,
2013-07-05 14:06:00,96.8,64.7,29.89,North,0,0.0,0.0,35,0.00,,---,0.00,VWS V14.01,2013-07-05 19:06:00,
2013-07-05 14:11:00,96.9,64.7,29.89,North,0,0.0,0.0,35,0.00,,---,0.00,VWS V14.01,2013-07-05 19:11:00,
2013-07-05 14:16:00,96.7,65.4,29.89,North,0,0.0,0.0,36,0.00,,---,0.00,VWS V14.01,2013-07-05 19:16:00,
2013-07-05 14:21:00,96.5,66.0,29.89,North,0,0.0,0.0,37,0.00,,---,0.00,VWS V14.01,2013-07-05 19:21:00,
2013-07-05 14:26:00,96.6,63.7,29.88,North,0,0.0,0.0,34,0.00,,---,0.00,VWS V14.01,2013-07-05 19:26:00,
2013-07-05 14:31:00,96.8,63.0,29.89,North,0,0.0,0.0,33,0.00,,---,0.00,VWS V14.01,2013-07-05 19:31:00,
2013-07-05 14:36:00,96.8,63.0,29.89,North,0,0.0,0.0,33,0.00,,---,0.00,VWS V14.01,2013-07-05 19:36:00,
2013-07-05 14:41:00,96.6,62.8,29.89,North,0,0.0,0.0,33,0.00,,---,0.00,VWS V14.01,2013-07-05 19:41:00,
2013-07-05 14:46:00,96.9,60.4,29.88,North,0,0.0,0.0,30,0.00,,---,0.00,VWS V14.01,2013-07-05 19:46:00,
2013-07-05 14:51:00,97.1,61.5,29.88,North,0,0.0,0.0,31,0.00,,---,0.00,VWS V14.01,2013-07-05 19:51:00,
2013-07-05 14:56:00,97.4,62.6,29.88,North,0,0.0,0.0,32,0.00,,---,0.00,VWS V14.01,2013-07-05 19:56:00,
2013-07-05 15:01:00,97.5,63.6,29.88,North,0,0.0,0.0,33,0.00,,---,0.00,VWS V14.01,2013-07-05 20:01:00,
2013-07-05 15:02:00,97.4,62.6,29.88,North,0,0.0,0.0,32,0.00,,---,0.00,VWS V14.01,2013-07-05 20:02:00,
2013-07-05 15:04:00,97.5,63.6,29.88,North,0,0.0,0.0,33,0.00,,---,0.00,VWS V14.01,2013-07-05 20:04:00,
2013-07-05 15:06:00,97.8,64.7,29.88,North,0,0.0,0.0,34,0.00,,---,0.00,VWS V14.01,2013-07-05 20:06:00,
2013-07-05 15:08:00,97.6,63.7,29.88,North,0,0.0,0.0,33,0.00,,---,0.00,VWS V14.01,2013-07-05 20:08:00,
2013-07-05 15:09:00,97.6,63.7,29.88,North,0,0.0,0.0,33,0.00,,---,0.00,VWS V14.01,2013-07-05 20:09:00,
2013-07-05 15:10:00,97.7,63.8,29.88,North,0,0.0,0.0,33,0.00,,---,0.00,VWS V14.01,2013-07-05 20:10:00,
2013-07-05 15:11:00,98.1,64.1,29.88,North,0,0.0,0.0,33,0.00,,---,0.00,VWS V14.01,2013-07-05 20:11:00,
2013-07-05 15:12:00,97.8,64.7,29.88,North,0,0.0,0.0,34,0.00,,---,0.00,VWS V14.01,2013-07-05 20:12:00,
2013-07-05 15:13:00,97.9,64.8,29.88,North,0,0.0,0.0,34,0.00,,---,0.00,VWS V14.01,2013-07-05 20:13:00,
2013-07-05 15:15:00,98.0,64.9,29.88,North,0,0.0,0.0,34,0.00,,---,0.00,VWS V14.01,2013-07-05 20:15:00,
2013-07-05 15:16:00,98.0,64.0,29.88,North,0,0.0,0.0,33,0.00,,---,0.00,VWS V14.01,2013-07-05 20:16:00,
2013-07-05 15:18:00,98.1,64.1,29.88,North,0,0.0,0.0,33,0.00,,---,0.00,VWS V14.01,2013-07-05 20:18:00,
2013-07-05 15:21:00,97.6,63.7,29.88,North,0,0.0,0.0,33,0.00,,---,0.00,VWS V14.01,2013-07-05 20:21:00,
2013-07-05 15:22:00,98.0,64.0,29.88,North,0,0.0,0.0,33,0.00,,---,0.00,VWS V14.01,2013-07-05 20:22:00,
2013-07-05 15:25:00,97.8,65.5,29.88,North,0,0.0,0.0,35,0.00,,---,0.00,VWS V14.01,2013-07-05 20:25:00,
2013-07-05 15:26:00,97.4,64.3,29.87,North,0,0.0,0.0,34,0.00,,---,0.00,VWS V14.01,2013-07-05 20:26:00,
2013-07-05 15:29:00,97.6,64.5,29.87,North,0,0.0,0.0,34,0.00,,---,0.00,VWS V14.01,2013-07-05 20:29:00,
2013-07-05 15:30:00,97.6,64.5,29.87,North,0,0.0,0.0,34,0.00,,---,0.00,VWS V14.01,2013-07-05 20:30:00,
2013-07-05 15:31:00,96.7,64.6,29.86,North,0,0.0,0.0,35,0.00,,---,0.00,VWS V14.01,2013-07-05 20:31:00,
2013-07-05 15:32:00,97.4,64.3,29.87,North,0,0.0,0.0,34,0.00,,---,0.00,VWS V14.01,2013-07-05 20:32:00,
2013-07-05 15:33:00,97.3,64.3,29.87,North,0,0.0,0.0,34,0.00,,---,0.00,VWS V14.01,2013-07-05 20:33:00,
2013-07-05 15:34:00,97.1,64.1,29.87,North,0,0.0,0.0,34,0.00,,---,0.00,VWS V14.01,2013-07-05 20:34:00,
2013-07-05 15:35:00,97.0,64.8,29.87,North,0,0.0,0.0,35,0.00,,---,0.00,VWS V14.01,2013-07-05 20:35:00,
2013-07-05 15:36:00,96.6,64.5,29.86,North,0,0.0,0.0,35,0.00,,---,0.00,VWS V14.01,2013-07-05 20:36:00,
2013-07-05 15:37:00,96.8,64.7,29.87,North,0,0.0,0.0,35,0.00,,---,0.00,VWS V14.01,2013-07-05 20:37:00,
2013-07-05 15:40:00,96.6,64.5,29.86,North,0,0.0,0.0,35,0.00,,---,0.00,VWS V14.01,2013-07-05 20:40:00,
2013-07-05 15:41:00,96.6,64.5,29.86,North,0,0.0,0.0,35,0.00,,---,0.00,VWS V14.01,2013-07-05 20:41:00,
2013-07-05 15:42:00,96.6,64.5,29.86,North,0,0.0,0.0,35,0.00,,---,0.00,VWS V14.01,2013-07-05 20:42:00,
2013-07-05 15:43:00,96.6,64.5,29.86,North,0,0.0,0.0,35,0.00,,---,0.00,VWS V14.01,2013-07-05 20:43:00,
2013-07-05 15:44:00,96.7,64.6,29.86,North,0,0.0,0.0,35,0.00,,---,0.00,VWS V14.01,2013-07-05 20:44:00,
2013-07-05 15:45:00,96.6,64.5,29.86,North,0,0.0,0.0,35,0.00,,---,0.00,VWS V14.01,2013-07-05 20:45:00,
2013-07-05 15:46:00,96.6,65.3,29.86,North,0,0.0,0.0,36,0.00,,---,0.00,VWS V14.01,2013-07-05 20:46:00,
2013-07-05 15:47:00,96.7,64.6,29.86,North,0,0.0,0.0,35,0.00,,---,0.00,VWS V14.01,2013-07-05 20:47:00,
2013-07-05 15:49:00,96.7,64.6,29.86,North,0,0.0,0.0,35,0.00,,---,0.00,VWS V14.01,2013-07-05 20:49:00,
2013-07-05 15:51:00,96.7,63.7,29.86,North,0,0.0,0.0,34,0.00,,---,0.00,VWS V14.01,2013-07-05 20:51:00,
2013-07-05 15:52:00,96.7,63.7,29.86,North,0,0.0,0.0,34,0.00,,---,0.00,VWS V14.01,2013-07-05 20:52:00,
2013-07-05 15:53:00,96.7,64.6,29.86,North,0,0.0,0.0,35,0.00,,---,0.00,VWS V14.01,2013-07-05 20:53:00,
2013-07-05 15:57:00,96.7,63.7,29.86,North,0,0.0,0.0,34,0.00,,---,0.00,VWS V14.01,2013-07-05 20:57:00,
2013-07-05 15:58:00,96.7,63.7,29.86,North,0,0.0,0.0,34,0.00,,---,0.00,VWS V14.01,2013-07-05 20:58:00,
2013-07-05 15:59:00,96.7,62.9,29.86,North,0,0.0,0.0,33,0.00,,---,0.00,VWS V14.01,2013-07-05 20:59:00,
2013-07-05 16:01:00,96.7,63.7,29.86,North,0,0.0,0.0,34,0.00,,---,0.00,VWS V14.01,2013-07-05 21:01:00,
2013-07-05 16:02:00,96.7,65.4,29.85,North,0,0.0,0.0,36,0.00,,---,0.00,VWS V14.01,2013-07-05 21:02:00,
2013-07-05 16:03:00,96.7,63.7,29.86,North,0,0.0,0.0,34,0.00,,---,0.00,VWS V14.01,2013-07-05 21:03:00,
2013-07-05 16:06:00,96.7,63.7,29.85,North,0,0.0,0.0,34,0.00,,---,0.00,VWS V14.01,2013-07-05 21:06:00,
2013-07-05 16:07:00,96.8,64.7,29.85,North,0,0.0,0.0,35,0.00,,---,0.00,VWS V14.01,2013-07-05 21:07:00,
2013-07-05 16:09:00,96.7,64.6,29.85,North,0,0.0,0.0,35,0.00,,---,0.00,VWS V14.01,2013-07-05 21:09:00,
2013-07-05 16:10:00,96.8,65.5,29.85,North,0,0.0,0.0,36,0.00,,---,0.00,VWS V14.01,2013-07-05 21:10:00,
2013-07-05 16:11:00,96.8,64.7,29.85,North,0,0.0,0.0,35,0.00,,---,0.00,VWS V14.01,2013-07-05 21:11:00,
2013-07-05 16:12:00,96.9,65.6,29.85,North,0,0.0,0.0,36,0.00,,---,0.00,VWS V14.01,2013-07-05 21:12:00,
2013-07-05 16:13:00,96.9,64.7,29.85,North,0,0.0,0.0,35,0.00,,---,0.00,VWS V14.01,2013-07-05 21:13:00,
2013-07-05 16:14:00,96.9,64.7,29.85,North,0,0.0,0.0,35,0.00,,---,0.00,VWS V14.01,2013-07-05 21:14:00,
2013-07-05 16:15:00,96.9,64.7,29.85,North,0,0.0,0.0,35,0.00,,---,0.00,VWS V14.01,2013-07-05 21:15:00,
2013-07-05 16:17:00,96.8,64.7,29.85,North,0,0.0,0.0,35,0.00,,---,0.00,VWS V14.01,2013-07-05 21:17:00,
2013-07-05 16:18:00,96.9,64.7,29.85,North,0,0.0,0.0,35,0.00,,---,0.00,VWS V14.01,2013-07-05 21:18:00,
2013-07-05 16:21:00,96.9,63.9,29.85,North,0,0.0,0.0,34,0.00,,---,0.00,VWS V14.01,2013-07-05 21:21:00,
2013-07-05 16:22:00,96.7,62.9,29.84,North,0,0.0,0.0,33,0.00,,---,0.00,VWS V14.01,2013-07-05 21:22:00,
2013-07-05 16:25:00,96.7,63.7,29.85,North,0,0.0,0.0,34,0.00,,---,0.00,VWS V14.01,2013-07-05 21:25:00,
2013-07-05 16:26:00,96.7,63.7,29.85,North,0,0.0,0.0,34,0.00,,---,0.00,VWS V14.01,2013-07-05 21:26:00,
2013-07-05 16:27:00,96.7,63.7,29.84,North,0,0.0,0.0,34,0.00,,---,0.00,VWS V14.01,2013-07-05 21:27:00,
2013-07-05 16:31:00,96.6,63.7,29.84,North,0,0.0,0.0,34,0.00,,---,0.00,VWS V14.01,2013-07-05 21:31:00,
2013-07-05 16:32:00,96.7,64.6,29.84,North,0,0.0,0.0,35,0.00,,---,0.00,VWS V14.01,2013-07-05 21:32:00,
2013-07-05 16:35:00,96.7,64.6,29.84,North,0,0.0,0.0,35,0.00,,---,0.00,VWS V14.01,2013-07-05 21:35:00,
2013-07-05 16:36:00,96.7,64.6,29.84,North,0,0.0,0.0,35,0.00,,---,0.00,VWS V14.01,2013-07-05 21:36:00,
2013-07-05 16:37:00,96.8,63.0,29.84,North,0,0.0,0.0,33,0.00,,---,0.00,VWS V14.01,2013-07-05 21:37:00,
2013-07-05 16:41:00,96.8,63.8,29.84,North,0,0.0,0.0,34,0.00,,---,0.00,VWS V14.01,2013-07-05 21:41:00,
2013-07-05 16:42:00,96.8,63.8,29.84,North,0,0.0,0.0,34,0.00,,---,0.00,VWS V14.01,2013-07-05 21:42:00,
2013-07-05 16:44:00,96.8,63.8,29.84,North,0,0.0,0.0,34,0.00,,---,0.00,VWS V14.01,2013-07-05 21:44:00,
2013-07-05 16:46:00,96.9,63.1,29.84,North,0,0.0,0.0,33,0.00,,---,0.00,VWS V14.01,2013-07-05 21:46:00,
2013-07-05 16:47:00,96.7,63.7,29.83,North,0,0.0,0.0,34,0.00,,---,0.00,VWS V14.01,2013-07-05 21:47:00,
2013-07-05 16:48:00,96.8,63.8,29.84,North,0,0.0,0.0,34,0.00,,---,0.00,VWS V14.01,2013-07-05 21:48:00,
2013-07-05 16:52:00,96.6,64.5,29.83,North,0,0.0,0.0,35,0.00,,---,0.00,VWS V14.01,2013-07-05 21:52:00,
2013-07-05 16:53:00,96.8,63.8,29.83,North,0,0.0,0.0,34,0.00,,---,0.00,VWS V14.01,2013-07-05 21:53:00,
2013-07-05 16:54:00,96.7,63.7,29.83,North,0,0.0,0.0,34,0.00,,---,0.00,VWS V14.01,2013-07-05 21:54:00,
2013-07-05 16:55:00,96.7,64.6,29.83,North,0,0.0,0.0,35,0.00,,---,0.00,VWS V14.01,2013-07-05 21:55:00,
2013-07-05 16:57:00,96.8,63.8,29.83,North,0,0.0,0.0,34,0.00,,---,0.00,VWS V14.01,2013-07-05 21:57:00,
2013-07-05 16:58:00,96.6,64.5,29.83,North,0,0.0,0.0,35,0.00,,---,0.00,VWS V14.01,2013-07-05 21:58:00,
2013-07-05 16:59:00,96.7,64.6,29.83,North,0,0.0,0.0,35,0.00,,---,0.00,VWS V14.01,2013-07-05 21:59:00,
2013-07-05 17:02:00,97.0,63.2,29.83,North,0,0.0,0.0,33,0.00,,---,0.00,VWS V14.01,2013-07-05 22:02:00,
2013-07-05 17:03:00,96.9,63.1,29.83,North,0,0.0,0.0,33,0.00,,---,0.00,VWS V14.01,2013-07-05 22:03:00,
2013-07-05 17:04:00,96.9,63.1,29.83,North,0,0.0,0.0,33,0.00,,---,0.00,VWS V14.01,2013-07-05 22:04:00,
2013-07-05 17:06:00,96.9,63.1,29.83,North,0,0.0,0.0,33,0.00,,---,0.00,VWS V14.01,2013-07-05 22:06:00,
2013-07-05 17:07:00,97.0,63.2,29.83,North,0,0.0,0.0,33,0.00,,---,0.00,VWS V14.01,2013-07-05 22:07:00,
2013-07-05 17:08:00,96.8,63.8,29.83,North,0,0.0,0.0,34,0.00,,---,0.00,VWS V14.01,2013-07-05 22:08:00,
2013-07-05 17:11:00,96.9,63.1,29.83,North,0,0.0,0.0,33,0.00,,---,0.00,VWS V14.01,2013-07-05 22:11:00,
2013-07-05 17:12:00,96.8,63.0,29.83,North,0,0.0,0.0,33,0.00,,---,0.00,VWS V14.01,2013-07-05 22:12:00,
2013-07-05 17:13:00,96.7,62.9,29.82,North,0,0.0,0.0,33,0.00,,---,0.00,VWS V14.01,2013-07-05 22:13:00,
2013-07-05 17:14:00,96.8,63.8,29.83,North,0,0.0,0.0,34,0.00,,---,0.00,VWS V14.01,2013-07-05 22:14:00,
2013-07-05 17:15:00,96.8,63.0,29.82,North,0,0.0,0.0,33,0.00,,---,0.00,VWS V14.01,2013-07-05 22:15:00,
2013-07-05 17:16:00,96.8,63.0,29.82,North,0,0.0,0.0,33,0.00,,---,0.00,VWS V14.01,2013-07-05 22:16:00,
2013-07-05 17:18:00,96.4,62.6,29.82,North,0,0.0,0.0,33,0.00,,---,0.00,VWS V14.01,2013-07-05 22:18:00,
2013-07-05 17:19:00,96.7,62.9,29.82,North,0,0.0,0.0,33,0.00,,---,0.00,VWS V14.01,2013-07-05 22:19:00,
2013-07-05 17:20:00,96.6,62.8,29.82,North,0,0.0,0.0,33,0.00,,---,0.00,VWS V14.01,2013-07-05 22:20:00,
2013-07-05 17:21:00,96.6,62.8,29.82,North,0,0.0,0.0,33,0.00,,---,0.00,VWS V14.01,2013-07-05 22:21:00,
2013-07-05 17:22:00,96.5,62.7,29.82,North,0,0.0,0.0,33,0.00,,---,0.00,VWS V14.01,2013-07-05 22:22:00,
2013-07-05 17:23:00,96.2,62.5,29.82,North,0,0.0,0.0,33,0.00,,---,0.00,VWS V14.01,2013-07-05 22:23:00,
2013-07-05 17:24:00,96.3,62.5,29.82,North,0,0.0,0.0,33,0.00,,---,0.00,VWS V14.01,2013-07-05 22:24:00,
2013-07-05 17:25:00,96.3,62.5,29.82,North,0,0.0,0.0,33,0.00,,---,0.00,VWS V14.01,2013-07-05 22:25:00,
2013-07-05 17:27:00,96.2,63.3,29.82,North,0,0.0,0.0,34,0.00,,---,0.00,VWS V14.01,2013-07-05 22:27:00,
2013-07-05 17:28:00,96.0,61.4,29.82,North,0,0.0,0.0,32,0.00,,---,0.00,VWS V14.01,2013-07-05 22:28:00,
2013-07-05 17:29:00,96.1,62.4,29.82,North,0,0.0,0.0,33,0.00,,---,0.00,VWS V14.01,2013-07-05 22:29:00,
2013-07-05 17:30:00,96.1,62.4,29.82,North,0,0.0,0.0,33,0.00,,---,0.00,VWS V14.01,2013-07-05 22:30:00,
2013-07-05 17:32:00,96.0,62.3,29.82,North,0,0.0,0.0,33,0.00,,---,0.00,VWS V14.01,2013-07-05 22:32:00,
2013-07-05 17:33:00,95.7,61.2,29.82,North,0,0.0,0.0,32,0.00,,---,0.00,VWS V14.01,2013-07-05 22:33:00,
2013-07-05 17:36:00,95.8,61.2,29.82,North,0,0.0,0.0,32,0.00,,---,0.00,VWS V14.01,2013-07-05 22:36:00,
2013-07-05 17:37:00,95.7,62.0,29.82,North,0,0.0,0.0,33,0.00,,---,0.00,VWS V14.01,2013-07-05 22:37:00,
2013-07-05 17:38:00,95.8,62.1,29.82,North,0,0.0,0.0,33,0.00,,---,0.00,VWS V14.01,2013-07-05 22:38:00,
2013-07-05 17:39:00,95.7,62.0,29.82,North,0,0.0,0.0,33,0.00,,---,0.00,VWS V14.01,2013-07-05 22:39:00,
2013-07-05 17:41:00,95.7,62.0,29.82,North,0,0.0,0.0,33,0.00,,---,0.00,VWS V14.01,2013-07-05 22:41:00,
2013-07-05 17:42:00,95.8,62.1,29.82,North,0,0.0,0.0,33,0.00,,---,0.00,VWS V14.01,2013-07-05 22:42:00,
2013-07-05 17:43:00,96.0,61.4,29.81,North,0,0.0,0.0,32,0.00,,---,0.00,VWS V14.01,2013-07-05 22:43:00,
2013-07-05 17:44:00,95.8,62.1,29.82,North,0,0.0,0.0,33,0.00,,---,0.00,VWS V14.01,2013-07-05 22:44:00,
2013-07-05 17:47:00,96.0,62.3,29.81,North,0,0.0,0.0,33,0.00,,---,0.00,VWS V14.01,2013-07-05 22:47:00,
2013-07-05 17:48:00,96.2,61.6,29.81,North,0,0.0,0.0,32,0.00,,---,0.00,VWS V14.01,2013-07-05 22:48:00,
2013-07-05 17:49:00,96.0,62.3,29.81,North,0,0.0,0.0,33,0.00,,---,0.00,VWS V14.01,2013-07-05 22:49:00,
2013-07-05 17:50:00,96.1,62.4,29.81,North,0,0.0,0.0,33,0.00,,---,0.00,VWS V14.01,2013-07-05 22:50:00,
2013-07-05 17:51:00,96.1,61.5,29.81,North,0,0.0,0.0,32,0.00,,---,0.00,VWS V14.01,2013-07-05 22:51:00,
2013-07-05 17:53:00,96.1,60.6,29.81,North,0,0.0,0.0,31,0.00,,---,0.00,VWS V14.01,2013-07-05 22:53:00,
2013-07-05 17:54:00,96.2,61.6,29.81,North,0,0.0,0.0,32,0.00,,---,0.00,VWS V14.01,2013-07-05 22:54:00,
2013-07-05 17:55:00,96.2,61.6,29.81,North,0,0.0,0.0,32,0.00,,---,0.00,VWS V14.01,2013-07-05 22:55:00,
2013-07-05 17:56:00,96.2,61.6,29.81,North,0,0.0,0.0,32,0.00,,---,0.00,VWS V14.01,2013-07-05 22:56:00,
2013-07-05 17:57:00,96.1,61.5,29.81,North,0,0.0,0.0,32,0.00,,---,0.00,VWS V14.01,2013-07-05 22:57:00,
2013-07-05 17:58:00,96.0,63.1,29.81,North,0,0.0,0.0,34,0.00,,---,0.00,VWS V14.01,2013-07-05 22:58:00,
2013-07-05 17:59:00,96.1,60.6,29.81,North,0,0.0,0.0,31,0.00,,---,0.00,VWS V14.01,2013-07-05 22:59:00,
2013-07-05 18:01:00,96.0,62.3,29.82,North,0,0.0,0.0,33,0.00,,---,0.00,VWS V14.01,2013-07-05 23:01:00,
2013-07-05 18:02:00,96.0,62.3,29.81,North,0,0.0,0.0,33,0.00,,---,0.00,VWS V14.01,2013-07-05 23:02:00,
2013-07-05 18:03:00,95.9,61.3,29.81,North,0,0.0,0.0,32,0.00,,---,0.00,VWS V14.01,2013-07-05 23:03:00,
2013-07-05 18:04:00,96.0,62.3,29.81,North,0,0.0,0.0,33,0.00,,---,0.00,VWS V14.01,2013-07-05 23:04:00,
2013-07-05 18:05:00,96.0,62.3,29.81,North,0,0.0,0.0,33,0.00,,---,0.00,VWS V14.01,2013-07-05 23:05:00,
2013-07-05 18:06:00,96.0,62.3,29.81,North,0,0.0,0.0,33,0.00,,---,0.00,VWS V14.01,2013-07-05 23:06:00,
2013-07-05 18:07:00,96.0,62.3,29.81,North,0,0.0,0.0,33,0.00,,---,0.00,VWS V14.01,2013-07-05 23:07:00,
2013-07-05 18:08:00,95.9,61.3,29.81,North,0,0.0,0.0,32,0.00,,---,0.00,VWS V14.01,2013-07-05 23:08:00,
2013-07-05 18:09:00,95.9,62.2,29.81,North,0,0.0,0.0,33,0.00,,---,0.00,VWS V14.01,2013-07-05 23:09:00,
2013-07-05 18:11:00,95.9,61.3,29.81,North,0,0.0,0.0,32,0.00,,---,0.00,VWS V14.01,2013-07-05 23:11:00,
2013-07-05 18:12:00,95.9,61.3,29.81,North,0,0.0,0.0,32,0.00,,---,0.00,VWS V14.01,2013-07-05 23:12:00,
2013-07-05 18:13:00,96.0,62.3,29.81,North,0,0.0,0.0,33,0.00,,---,0.00,VWS V14.01,2013-07-05 23:13:00,
2013-07-05 18:15:00,96.0,61.4,29.81,North,0,0.0,0.0,32,0.00,,---,0.00,VWS V14.01,2013-07-05 23:15:00,
2013-07-05 18:16:00,96.0,61.4,29.81,North,0,0.0,0.0,32,0.00,,---,0.00,VWS V14.01,2013-07-05 23:16:00,
2013-07-05 18:17:00,96.0,62.3,29.81,North,0,0.0,0.0,33,0.00,,---,0.00,VWS V14.01,2013-07-05 23:17:00,
2013-07-05 18:18:00,96.0,62.3,29.81,North,0,0.0,0.0,33,0.00,,---,0.00,VWS V14.01,2013-07-05 23:18:00,
2013-07-05 18:20:00,96.0,62.3,29.81,North,0,0.0,0.0,33,0.00,,---,0.00,VWS V14.01,2013-07-05 23:20:00,
2013-07-05 18:21:00,96.0,62.3,29.81,North,0,0.0,0.0,33,0.00,,---,0.00,VWS V14.01,2013-07-05 23:21:00,
2013-07-05 18:22:00,96.0,62.3,29.81,North,0,0.0,0.0,33,0.00,,---,0.00,VWS V14.01,2013-07-05 23:22:00,
2013-07-05 18:23:00,96.0,63.1,29.81,North,0,0.0,0.0,34,0.00,,---,0.00,VWS V14.01,2013-07-05 23:23:00,
2013-07-05 18:24:00,96.0,62.3,29.81,North,0,0.0,0.0,33,0.00,,---,0.00,VWS V14.01,2013-07-05 23:24:00,
2013-07-05 18:25:00,96.0,62.3,29.81,North,0,0.0,0.0,33,0.00,,---,0.00,VWS V14.01,2013-07-05 23:25:00,
2013-07-05 18:26:00,96.0,62.3,29.81,North,0,0.0,0.0,33,0.00,,---,0.00,VWS V14.01,2013-07-05 23:26:00,
2013-07-05 18:27:00,96.0,63.1,29.81,North,0,0.0,0.0,34,0.00,,---,0.00,VWS V14.01,2013-07-05 23:27:00,
2013-07-05 18:28:00,96.0,63.1,29.81,North,0,0.0,0.0,34,0.00,,---,0.00,VWS V14.01,2013-07-05 23:28:00,
2013-07-05 18:29:00,96.0,63.1,29.81,North,0,0.0,0.0,34,0.00,,---,0.00,VWS V14.01,2013-07-05 23:29:00,
2013-07-05 18:30:00,96.0,63.1,29.81,North,0,0.0,0.0,34,0.00,,---,0.00,VWS V14.01,2013-07-05 23:30:00,
2013-07-05 18:31:00,96.0,63.1,29.81,North,0,0.0,0.0,34,0.00,,---,0.00,VWS V14.01,2013-07-05 23:31:00,
2013-07-05 18:32:00,96.0,63.1,29.81,North,0,0.0,0.0,34,0.00,,---,0.00,VWS V14.01,2013-07-05 23:32:00,
2013-07-05 18:33:00,95.9,62.2,29.81,North,0,0.0,0.0,33,0.00,,---,0.00,VWS V14.01,2013-07-05 23:33:00,
2013-07-05 18:36:00,96.0,62.3,29.81,North,0,0.0,0.0,33,0.00,,---,0.00,VWS V14.01,2013-07-05 23:36:00,
2013-07-05 18:38:00,95.9,63.0,29.81,North,0,0.0,0.0,34,0.00,,---,0.00,VWS V14.01,2013-07-05 23:38:00,
2013-07-05 18:40:00,95.9,62.2,29.81,North,0,0.0,0.0,33,0.00,,---,0.00,VWS V14.01,2013-07-05 23:40:00,
2013-07-05 18:41:00,95.9,63.0,29.81,North,0,0.0,0.0,34,0.00,,---,0.00,VWS V14.01,2013-07-05 23:41:00,
2013-07-05 18:42:00,95.9,63.0,29.81,North,0,0.0,0.0,34,0.00,,---,0.00,VWS V14.01,2013-07-05 23:42:00,
2013-07-05 18:43:00,95.9,63.0,29.81,North,0,0.0,0.0,34,0.00,,---,0.00,VWS V14.01,2013-07-05 23:43:00,
2013-07-05 18:45:00,95.9,63.0,29.81,North,0,0.0,0.0,34,0.00,,---,0.00,VWS V14.01,2013-07-05 23:45:00,
2013-07-05 18:46:00,95.9,63.0,29.81,North,0,0.0,0.0,34,0.00,,---,0.00,VWS V14.01,2013-07-05 23:46:00,
2013-07-05 18:47:00,95.9,63.0,29.81,North,0,0.0,0.0,34,0.00,,---,0.00,VWS V14.01,2013-07-05 23:47:00,
2013-07-05 18:48:00,95.8,63.0,29.81,North,0,0.0,0.0,34,0.00,,---,0.00,VWS V14.01,2013-07-05 23:48:00,
2013-07-05 18:51:00,95.9,63.0,29.81,North,0,0.0,0.0,34,0.00,,---,0.00,VWS V14.01,2013-07-05 23:51:00,
2013-07-05 18:53:00,95.6,62.8,29.80,North,0,0.0,0.0,34,0.00,,---,0.00,VWS V14.01,2013-07-05 23:53:00,
2013-07-05 18:54:00,95.8,63.0,29.81,North,0,0.0,0.0,34,0.00,,---,0.00,VWS V14.01,2013-07-05 23:54:00,
2013-07-05 18:55:00,95.8,63.8,29.81,North,0,0.0,0.0,35,0.00,,---,0.00,VWS V14.01,2013-07-05 23:55:00,
2013-07-05 18:56:00,95.7,63.7,29.81,North,0,0.0,0.0,35,0.00,,---,0.00,VWS V14.01,2013-07-05 23:56:00,
2013-07-05 18:57:00,95.7,62.9,29.81,North,0,0.0,0.0,34,0.00,,---,0.00,VWS V14.01,2013-07-05 23:57:00,
2013-07-05 18:58:00,95.4,62.6,29.81,North,0,0.0,0.0,34,0.00,,---,0.00,VWS V14.01,2013-07-05 23:58:00,
2013-07-05 19:02:00,95.4,62.6,29.81,North,0,0.0,0.0,34,0.00,,---,0.00,VWS V14.01,2013-07-06 00:02:00,
2013-07-05 19:03:00,95.1,62.3,29.81,North,0,0.0,0.0,34,0.00,,---,0.00,VWS V14.01,2013-07-06 00:03:00,
2013-07-05 19:05:00,95.2,62.4,29.81,North,0,0.0,0.0,34,0.00,,---,0.00,VWS V14.01,2013-07-06 00:05:00,
2013-07-05 19:07:00,95.1,62.3,29.81,North,0,0.0,0.0,34,0.00,,---,0.00,VWS V14.01,2013-07-06 00:07:00,
2013-07-05 19:08:00,94.8,62.9,29.81,North,0,0.0,0.0,35,0.00,,---,0.00,VWS V14.01,2013-07-06 00:08:00,
2013-07-05 19:09:00,95.0,62.3,29.81,North,0,0.0,0.0,34,0.00,,---,0.00,VWS V14.01,2013-07-06 00:09:00,
2013-07-05 19:11:00,94.9,62.2,29.81,North,0,0.0,0.0,34,0.00,,---,0.00,VWS V14.01,2013-07-06 00:11:00,
2013-07-05 19:13:00,94.5,61.8,29.81,North,0,0.0,0.0,34,0.00,,---,0.00,VWS V14.01,2013-07-06 00:13:00,
2013-07-05 19:15:00,94.7,62.0,29.81,North,0,0.0,0.0,34,0.00,,---,0.00,VWS V14.01,2013-07-06 00:15:00,
2013-07-05 19:16:00,94.7,62.0,29.81,North,0,0.0,0.0,34,0.00,,---,0.00,VWS V14.01,2013-07-06 00:16:00,
2013-07-05 19:17:00,94.6,62.7,29.81,North,0,0.0,0.0,35,0.00,,---,0.00,VWS V14.01,2013-07-06 00:17:00,
2013-07-05 19:18:00,94.2,61.6,29.81,North,0,0.0,0.0,34,0.00,,---,0.00,VWS V14.01,2013-07-06 00:18:00,
2013-07-05 19:21:00,94.4,61.7,29.81,North,0,0.0,0.0,34,0.00,,---,0.00,VWS V14.01,2013-07-06 00:21:00,
2013-07-05 19:23:00,94.0,62.2,29.81,North,0,0.0,0.0,35,0.00,,---,0.00,VWS V14.01,2013-07-06 00:23:00,
2013-07-05 19:24:00,94.2,62.4,29.81,North,0,0.0,0.0,35,0.00,,---,0.00,VWS V14.01,2013-07-06 00:24:00,
2013-07-05 19:27:00,94.0,62.2,29.81,North,0,0.0,0.0,35,0.00,,---,0.00,VWS V14.01,2013-07-06 00:27:00,
2013-07-05 19:28:00,93.8,62.0,29.81,North,0,0.0,0.0,35,0.00,,---,0.00,VWS V14.01,2013-07-06 00:28:00,
2013-07-05 19:29:00,93.9,62.1,29.81,North,0,0.0,0.0,35,0.00,,---,0.00,VWS V14.01,2013-07-06 00:29:00,
2013-07-05 19:30:00,93.9,62.1,29.81,North,0,0.0,0.0,35,0.00,,---,0.00,VWS V14.01,2013-07-06 00:30:00,
2013-07-05 19:31:00,93.8,62.0,29.81,North,0,0.0,0.0,35,0.00,,---,0.00,VWS V14.01,2013-07-06 00:31:00,
2013-07-05 19:33:00,93.5,61.8,29.81,North,0,0.0,0.0,35,0.00,,---,0.00,VWS V14.01,2013-07-06 00:33:00,
2013-07-05 19:34:00,93.7,61.9,29.81,North,0,0.0,0.0,35,0.00,,---,0.00,VWS V14.01,2013-07-06 00:34:00,
2013-07-05 19:35:00,93.7,61.9,29.81,North,0,0.0,0.0,35,0.00,,---,0.00,VWS V14.01,2013-07-06 00:35:00,
2013-07-05 19:36:00,93.7,61.9,29.81,North,0,0.0,0.0,35,0.00,,---,0.00,VWS V14.01,2013-07-06 00:36:00,
2013-07-05 19:37:00,93.6,61.8,29.81,North,0,0.0,0.0,35,0.00,,---,0.00,VWS V14.01,2013-07-06 00:37:00,
2013-07-05 19:38:00,93.3,61.6,29.81,North,0,0.0,0.0,35,0.00,,---,0.00,VWS V14.01,2013-07-06 00:38:00,
2013-07-05 19:39:00,93.5,61.8,29.81,North,0,0.0,0.0,35,0.00,,---,0.00,VWS V14.01,2013-07-06 00:39:00,
2013-07-05 19:40:00,93.5,61.8,29.81,North,0,0.0,0.0,35,0.00,,---,0.00,VWS V14.01,2013-07-06 00:40:00,
2013-07-05 19:43:00,93.0,60.5,29.81,North,0,0.0,0.0,34,0.00,,---,0.00,VWS V14.01,2013-07-06 00:43:00,
2013-07-05 19:44:00,93.3,61.6,29.81,North,0,0.0,0.0,35,0.00,,---,0.00,VWS V14.01,2013-07-06 00:44:00,
2013-07-05 19:47:00,93.1,61.4,29.81,North,0,0.0,0.0,35,0.00,,---,0.00,VWS V14.01,2013-07-06 00:47:00,
2013-07-05 19:48:00,92.8,60.3,29.81,North,0,0.0,0.0,34,0.00,,---,0.00,VWS V14.01,2013-07-06 00:48:00,
2013-07-05 19:49:00,93.0,60.5,29.81,North,0,0.0,0.0,34,0.00,,---,0.00,VWS V14.01,2013-07-06 00:49:00,
2013-07-05 19:50:00,93.0,61.3,29.81,North,0,0.0,0.0,35,0.00,,---,0.00,VWS V14.01,2013-07-06 00:50:00,
2013-07-05 19:51:00,92.9,61.2,29.81,North,0,0.0,0.0,35,0.00,,---,0.00,VWS V14.01,2013-07-06 00:51:00,
2013-07-05 19:52:00,92.9,60.4,29.81,North,0,0.0,0.0,34,0.00,,---,0.00,VWS V14.01,2013-07-06 00:52:00,
2013-07-05 19:53:00,92.6,60.2,29.81,North,0,0.0,0.0,34,0.00,,---,0.00,VWS V14.01,2013-07-06 00:53:00,
2013-07-05 19:54:00,92.8,60.3,29.81,North,0,0.0,0.0,34,0.00,,---,0.00,VWS V14.01,2013-07-06 00:54:00,
2013-07-05 19:58:00,92.4,60.0,29.81,North,0,0.0,0.0,34,0.00,,---,0.00,VWS V14.01,2013-07-06 00:58:00,
2013-07-05 19:59:00,92.6,60.2,29.81,North,0,0.0,0.0,34,0.00,,---,0.00,VWS V14.01,2013-07-06 00:59:00,
2013-07-05 20:00:00,92.6,60.2,29.81,North,0,0.0,0.0,34,0.00,,---,0.00,VWS V14.01,2013-07-06 01:00:00,
2013-07-05 20:01:00,92.5,60.1,29.81,North,0,0.0,0.0,34,0.00,,---,0.00,VWS V14.01,2013-07-06 01:01:00,
2013-07-05 20:02:00,92.5,60.1,29.81,North,0,0.0,0.0,34,0.00,,---,0.00,VWS V14.01,2013-07-06 01:02:00,
2013-07-05 20:03:00,92.2,60.6,29.82,North,0,0.0,0.0,35,0.00,,---,0.00,VWS V14.01,2013-07-06 01:03:00,
2013-07-05 20:06:00,92.3,59.9,29.81,North,0,0.0,0.0,34,0.00,,---,0.00,VWS V14.01,2013-07-06 01:06:00,
2013-07-05 20:07:00,92.2,59.8,29.81,North,0,0.0,0.0,34,0.00,,---,0.00,VWS V14.01,2013-07-06 01:07:00,
2013-07-05 20:08:00,91.9,60.4,29.82,North,0,0.0,0.0,35,0.00,,---,0.00,VWS V14.01,2013-07-06 01:08:00,
2013-07-05 20:09:00,92.2,60.6,29.82,North,0,0.0,0.0,35,0.00,,---,0.00,VWS V14.01,2013-07-06 01:09:00,
2013-07-05 20:11:00,92.1,60.5,29.82,North,0,0.0,0.0,35,0.00,,---,0.00,VWS V14.01,2013-07-06 01:11:00,
2013-07-05 20:12:00,92.0,59.6,29.82,North,0,0.0,0.0,34,0.00,,---,0.00,VWS V14.01,2013-07-06 01:12:00,
2013-07-05 20:13:00,91.7,60.2,29.81,North,0,0.0,0.0,35,0.00,,---,0.00,VWS V14.01,2013-07-06 01:13:00,
2013-07-05 20:14:00,91.9,60.4,29.82,North,0,0.0,0.0,35,0.00,,---,0.00,VWS V14.01,2013-07-06 01:14:00,
2013-07-05 20:15:00,91.9,60.4,29.81,North,0,0.0,0.0,35,0.00,,---,0.00,VWS V14.01,2013-07-06 01:15:00,
2013-07-05 20:16:00,91.8,59.5,29.81,North,0,0.0,0.0,34,0.00,,---,0.00,VWS V14.01,2013-07-06 01:16:00,
2013-07-05 20:17:00,91.8,59.5,29.81,North,0,0.0,0.0,34,0.00,,---,0.00,VWS V14.01,2013-07-06 01:17:00,
2013-07-05 20:18:00,91.4,59.9,29.81,North,0,0.0,0.0,35,0.00,,---,0.00,VWS V14.01,2013-07-06 01:18:00,
2013-07-05 20:19:00,91.7,60.2,29.81,North,0,0.0,0.0,35,0.00,,---,0.00,VWS V14.01,2013-07-06 01:19:00,
2013-07-05 20:22:00,91.5,60.0,29.81,North,0,0.0,0.0,35,0.00,,---,0.00,VWS V14.01,2013-07-06 01:22:00,
2013-07-05 20:23:00,91.2,60.5,29.81,North,0,0.0,0.0,36,0.00,,---,0.00,VWS V14.01,2013-07-06 01:23:00,
2013-07-05 20:24:00,91.4,59.9,29.81,North,0,0.0,0.0,35,0.00,,---,0.00,VWS V14.01,2013-07-06 01:24:00,
2013-07-05 20:26:00,91.3,59.8,29.81,North,0,0.0,0.0,35,0.00,,---,0.00,VWS V14.01,2013-07-06 01:26:00,
2013-07-05 20:27:00,91.3,59.8,29.81,North,0,0.0,0.0,35,0.00,,---,0.00,VWS V14.01,2013-07-06 01:27:00,
2013-07-05 20:28:00,91.1,61.2,29.82,North,0,0.0,0.0,37,0.00,,---,0.00,VWS V14.01,2013-07-06 01:28:00,
2013-07-05 20:29:00,91.2,60.5,29.81,North,0,0.0,0.0,36,0.00,,---,0.00,VWS V14.01,2013-07-06 01:29:00,
2013-07-05 20:30:00,91.2,60.5,29.81,North,0,0.0,0.0,36,0.00,,---,0.00,VWS V14.01,2013-07-06 01:30:00,
2013-07-05 20:32:00,91.1,60.5,29.82,North,0,0.0,0.0,36,0.00,,---,0.00,VWS V14.01,2013-07-06 01:32:00,
2013-07-05 20:33:00,90.9,61.8,29.82,North,0,0.0,0.0,38,0.00,,---,0.00,VWS V14.01,2013-07-06 01:33:00,
2013-07-05 20:34:00,91.1,61.2,29.82,North,0,0.0,0.0,37,0.00,,---,0.00,VWS V14.01,2013-07-06 01:34:00,
2013-07-05 20:36:00,91.0,61.1,29.82,North,0,0.0,0.0,37,0.00,,---,0.00,VWS V14.01,2013-07-06 01:36:00,
2013-07-05 20:37:00,91.0,61.1,29.82,North,0,0.0,0.0,37,0.00,,---,0.00,VWS V14.01,2013-07-06 01:37:00,
2013-07-05 20:38:00,90.7,60.9,29.82,North,0,0.0,0.0,37,0.00,,---,0.00,VWS V14.01,2013-07-06 01:38:00,
2013-07-05 20:39:00,90.7,60.9,29.82,North,0,0.0,0.0,37,0.00,,---,0.00,VWS V14.01,2013-07-06 01:39:00,
2013-07-05 20:40:00,90.9,61.8,29.82,North,0,0.0,0.0,38,0.00,,---,0.00,VWS V14.01,2013-07-06 01:40:00,
2013-07-05 20:41:00,90.8,61.0,29.82,North,0,0.0,0.0,37,0.00,,---,0.00,VWS V14.01,2013-07-06 01:41:00,
2013-07-05 20:42:00,90.8,61.0,29.82,North,0,0.0,0.0,37,0.00,,---,0.00,VWS V14.01,2013-07-06 01:42:00,
2013-07-05 20:44:00,90.5,61.5,29.82,North,0,0.0,0.0,38,0.00,,---,0.00,VWS V14.01,2013-07-06 01:44:00,
2013-07-05 20:46:00,90.6,60.8,29.82,North,0,0.0,0.0,37,0.00,,---,0.00,VWS V14.01,2013-07-06 01:46:00,
2013-07-05 20:48:00,90.5,61.5,29.82,North,0,0.0,0.0,38,0.00,,---,0.00,VWS V14.01,2013-07-06 01:48:00,
2013-07-05 20:49:00,90.3,61.3,29.82,North,0,0.0,0.0,38,0.00,,---,0.00,VWS V14.01,2013-07-06 01:49:00,
2013-07-05 20:51:00,90.4,61.4,29.82,North,0,0.0,0.0,38,0.00,,---,0.00,VWS V14.01,2013-07-06 01:51:00,
2013-07-05 20:54:00,90.1,61.1,29.82,North,0,0.0,0.0,38,0.00,,---,0.00,VWS V14.01,2013-07-06 01:54:00,
2013-07-05 20:55:00,90.2,61.2,29.82,North,0,0.0,0.0,38,0.00,,---,0.00,VWS V14.01,2013-07-06 01:55:00,
2013-07-05 20:56:00,90.2,61.2,29.82,North,0,0.0,0.0,38,0.00,,---,0.00,VWS V14.01,2013-07-06 01:56:00,
2013-07-05 20:57:00,90.2,61.2,29.82,North,0,0.0,0.0,38,0.00,,---,0.00,VWS V14.01,2013-07-06 01:57:00,
2013-07-05 20:58:00,90.1,61.1,29.83,North,0,0.0,0.0,38,0.00,,---,0.00,VWS V14.01,2013-07-06 01:58:00,
2013-07-05 20:59:00,89.8,61.6,29.83,North,0,0.0,0.0,39,0.00,,---,0.00,VWS V14.01,2013-07-06 01:59:00,
2013-07-05 21:01:00,90.0,61.0,29.83,North,0,0.0,0.0,38,0.00,,---,0.00,VWS V14.01,2013-07-06 02:01:00,
2013-07-05 21:02:00,89.9,61.7,29.83,North,0,0.0,0.0,39,0.00,,---,0.00,VWS V14.01,2013-07-06 02:02:00,
2013-07-05 21:03:00,89.9,61.7,29.82,North,0,0.0,0.0,39,0.00,,---,0.00,VWS V14.01,2013-07-06 02:03:00,
2013-07-05 21:04:00,89.7,62.2,29.83,North,0,0.0,0.0,40,0.00,,---,0.00,VWS V14.01,2013-07-06 02:04:00,
2013-07-05 21:05:00,89.8,61.6,29.83,North,0,0.0,0.0,39,0.00,,---,0.00,VWS V14.01,2013-07-06 02:05:00,
2013-07-05 21:08:00,89.7,62.2,29.83,North,0,0.0,0.0,40,0.00,,---,0.00,VWS V14.01,2013-07-06 02:08:00,
2013-07-05 21:09:00,89.5,62.0,29.83,North,0,0.0,0.0,40,0.00,,---,0.00,VWS V14.01,2013-07-06 02:09:00,
2013-07-05 21:10:00,89.6,62.1,29.83,North,0,0.0,0.0,40,0.00,,---,0.00,VWS V14.01,2013-07-06 02:10:00,
2013-07-05 21:11:00,89.6,62.1,29.83,North,0,0.0,0.0,40,0.00,,---,0.00,VWS V14.01,2013-07-06 02:11:00,
2013-07-05 21:14:00,89.3,62.5,29.83,North,0,0.0,0.0,41,0.00,,---,0.00,VWS V14.01,2013-07-06 02:14:00,
2013-07-05 21:15:00,89.4,61.9,29.83,North,0,0.0,0.0,40,0.00,,---,0.00,VWS V14.01,2013-07-06 02:15:00,
2013-07-05 21:16:00,89.4,61.9,29.83,North,0,0.0,0.0,40,0.00,,---,0.00,VWS V14.01,2013-07-06 02:16:00,
2013-07-05 21:17:00,89.3,62.5,29.83,North,0,0.0,0.0,41,0.00,,---,0.00,VWS V14.01,2013-07-06 02:17:00,
2013-07-05 21:19:00,89.1,62.4,29.83,North,0,0.0,0.0,41,0.00,,---,0.00,VWS V14.01,2013-07-06 02:19:00,
2013-07-05 21:20:00,89.3,62.5,29.83,North,0,0.0,0.0,41,0.00,,---,0.00,VWS V14.01,2013-07-06 02:20:00,
2013-07-05 21:21:00,89.2,62.4,29.83,North,0,0.0,0.0,41,0.00,,---,0.00,VWS V14.01,2013-07-06 02:21:00,
2013-07-05 21:22:00,89.2,62.4,29.83,North,0,0.0,0.0,41,0.00,,---,0.00,VWS V14.01,2013-07-06 02:22:00,
2013-07-05 21:24:00,89.0,63.0,29.84,North,0,0.0,0.0,42,0.00,,---,0.00,VWS V14.01,2013-07-06 02:24:00,
2013-07-05 21:25:00,89.1,62.3,29.83,North,0,0.0,0.0,41,0.00,,---,0.00,VWS V14.01,2013-07-06 02:25:00,
2013-07-05 21:26:00,89.1,62.3,29.83,North,0,0.0,0.0,41,0.00,,---,0.00,VWS V14.01,2013-07-06 02:26:00,
2013-07-05 21:27:00,89.0,62.3,29.83,North,0,0.0,0.0,41,0.00,,---,0.00,VWS V14.01,2013-07-06 02:27:00,
2013-07-05 21:29:00,88.8,62.8,29.84,North,0,0.0,0.0,42,0.00,,---,0.00,VWS V14.01,2013-07-06 02:29:00,
2013-07-05 21:32:00,88.9,62.9,29.84,North,0,0.0,0.0,42,0.00,,---,0.00,VWS V14.01,2013-07-06 02:32:00,
2013-07-05 21:33:00,88.9,62.9,29.84,North,0,0.0,0.0,42,0.00,,---,0.00,VWS V14.01,2013-07-06 02:33:00,
2013-07-05 21:34:00,88.7,62.7,29.84,North,0,0.0,0.0,42,0.00,,---,0.00,VWS V14.01,2013-07-06 02:34:00,
2013-07-05 21:35:00,88.8,62.8,29.84,North,0,0.0,0.0,42,0.00,,---,0.00,VWS V14.01,2013-07-06 02:35:00,
2013-07-05 21:39:00,88.6,62.6,29.84,North,0,0.0,0.0,42,0.00,,---,0.00,VWS V14.01,2013-07-06 02:39:00,
2013-07-05 21:41:00,88.7,62.7,29.83,North,0,0.0,0.0,42,0.00,,---,0.00,VWS V14.01,2013-07-06 02:41:00,
2013-07-05 21:42:00,88.6,62.6,29.84,North,0,0.0,0.0,42,0.00,,---,0.00,VWS V14.01,2013-07-06 02:42:00,
2013-07-05 21:44:00,88.4,63.1,29.84,North,0,0.0,0.0,43,0.00,,---,0.00,VWS V14.01,2013-07-06 02:44:00,
2013-07-05 21:45:00,88.6,62.6,29.84,North,0,0.0,0.0,42,0.00,,---,0.00,VWS V14.01,2013-07-06 02:45:00,
2013-07-05 21:46:00,88.6,62.6,29.83,North,0,0.0,0.0,42,0.00,,---,0.00,VWS V14.01,2013-07-06 02:46:00,
2013-07-05 21:48:00,88.5,62.5,29.84,North,0,0.0,0.0,42,0.00,,---,0.00,VWS V14.01,2013-07-06 02:48:00,
2013-07-05 21:49:00,88.3,63.0,29.84,North,0,0.0,0.0,43,0.00,,---,0.00,VWS V14.01,2013-07-06 02:49:00,
2013-07-05 21:51:00,88.4,63.1,29.84,North,0,0.0,0.0,43,0.00,,---,0.00,VWS V14.01,2013-07-06 02:51:00,
2013-07-05 21:52:00,88.4,63.1,29.84,North,0,0.0,0.0,43,0.00,,---,0.00,VWS V14.01,2013-07-06 02:52:00,
2013-07-05 21:54:00,88.1,62.8,29.84,North,0,0.0,0.0,43,0.00,,---,0.00,VWS V14.01,2013-07-06 02:54:00,
2013-07-05 21:55:00,88.3,63.0,29.84,North,0,0.0,0.0,43,0.00,,---,0.00,VWS V14.01,2013-07-06 02:55:00,
2013-07-05 21:57:00,88.2,62.9,29.84,North,0,0.0,0.0,43,0.00,,---,0.00,VWS V14.01,2013-07-06 02:57:00,
2013-07-05 21:58:00,88.2,62.9,29.84,North,0,0.0,0.0,43,0.00,,---,0.00,VWS V14.01,2013-07-06 02:58:00,
2013-07-05 21:59:00,87.9,63.3,29.85,North,0,0.0,0.0,44,0.00,,---,0.00,VWS V14.01,2013-07-06 02:59:00,
2013-07-05 22:01:00,88.1,62.8,29.85,North,0,0.0,0.0,43,0.00,,---,0.00,VWS V14.01,2013-07-06 03:01:00,
2013-07-05 22:02:00,88.0,62.7,29.85,North,0,0.0,0.0,43,0.00,,---,0.00,VWS V14.01,2013-07-06 03:02:00,
2013-07-05 22:03:00,88.0,63.4,29.85,North,0,0.0,0.0,44,0.00,,---,0.00,VWS V14.01,2013-07-06 03:03:00,
2013-07-05 22:04:00,87.8,63.2,29.85,North,0,0.0,0.0,44,0.00,,---,0.00,VWS V14.01,2013-07-06 03:04:00,
2013-07-05 22:06:00,87.9,63.3,29.85,North,0,0.0,0.0,44,0.00,,---,0.00,VWS V14.01,2013-07-06 03:06:00,
2013-07-05 22:07:00,87.9,63.3,29.85,North,0,0.0,0.0,44,0.00,,---,0.00,VWS V14.01,2013-07-06 03:07:00,
2013-07-05 22:08:00,87.8,63.2,29.85,North,0,0.0,0.0,44,0.00,,---,0.00,VWS V14.01,2013-07-06 03:08:00,
2013-07-05 22:09:00,87.5,62.9,29.85,North,0,0.0,0.0,44,0.00,,---,0.00,VWS V14.01,2013-07-06 03:09:00,
2013-07-05 22:10:00,87.7,63.1,29.85,North,0,0.0,0.0,44,0.00,,---,0.00,VWS V14.01,2013-07-06 03:10:00,
2013-07-05 22:12:00,87.7,63.1,29.85,North,0,0.0,0.0,44,0.00,,---,0.00,VWS V14.01,2013-07-06 03:12:00,
2013-07-05 22:13:00,87.6,63.0,29.85,North,0,0.0,0.0,44,0.00,,---,0.00,VWS V14.01,2013-07-06 03:13:00,
2013-07-05 22:14:00,87.4,62.8,29.85,North,0,0.0,0.0,44,0.00,,---,0.00,VWS V14.01,2013-07-06 03:14:00,
2013-07-05 22:15:00,87.5,62.9,29.85,North,0,0.0,0.0,44,0.00,,---,0.00,VWS V14.01,2013-07-06 03:15:00,
2013-07-05 22:16:00,87.5,62.9,29.85,North,0,0.0,0.0,44,0.00,,---,0.00,VWS V14.01,2013-07-06 03:16:00,
2013-07-05 22:17:00,87.5,62.9,29.85,North,0,0.0,0.0,44,0.00,,---,0.00,VWS V14.01,2013-07-06 03:17:00,
2013-07-05 22:18:00,87.4,62.8,29.85,North,0,0.0,0.0,44,0.00,,---,0.00,VWS V14.01,2013-07-06 03:18:00,
2013-07-05 22:19:00,87.2,62.7,29.85,North,0,0.0,0.0,44,0.00,,---,0.00,VWS V14.01,2013-07-06 03:19:00,
2013-07-05 22:20:00,87.4,62.8,29.85,North,0,0.0,0.0,44,0.00,,---,0.00,VWS V14.01,2013-07-06 03:20:00,
2013-07-05 22:21:00,87.3,62.7,29.85,North,0,0.0,0.0,44,0.00,,---,0.00,VWS V14.01,2013-07-06 03:21:00,
2013-07-05 22:22:00,87.3,62.7,29.85,North,0,0.0,0.0,44,0.00,,---,0.00,VWS V14.01,2013-07-06 03:22:00,
2013-07-05 22:23:00,87.3,62.7,29.85,North,0,0.0,0.0,44,0.00,,---,0.00,VWS V14.01,2013-07-06 03:23:00,
2013-07-05 22:24:00,87.1,63.2,29.85,North,0,0.0,0.0,45,0.00,,---,0.00,VWS V14.01,2013-07-06 03:24:00,
2013-07-05 22:25:00,87.2,62.7,29.85,North,0,0.0,0.0,44,0.00,,---,0.00,VWS V14.01,2013-07-06 03:25:00,
2013-07-05 22:26:00,87.2,63.3,29.85,North,0,0.0,0.0,45,0.00,,---,0.00,VWS V14.01,2013-07-06 03:26:00,
2013-07-05 22:27:00,87.2,63.3,29.85,North,0,0.0,0.0,45,0.00,,---,0.00,VWS V14.01,2013-07-06 03:27:00,
2013-07-05 22:29:00,86.9,63.0,29.86,North,0,0.0,0.0,45,0.00,,---,0.00,VWS V14.01,2013-07-06 03:29:00,
2013-07-05 22:30:00,87.1,63.2,29.85,North,0,0.0,0.0,45,0.00,,---,0.00,VWS V14.01,2013-07-06 03:30:00,
2013-07-05 22:32:00,87.0,63.1,29.86,North,0,0.0,0.0,45,0.00,,---,0.00,VWS V14.01,2013-07-06 03:32:00,
2013-07-05 22:33:00,87.0,63.1,29.85,North,0,0.0,0.0,45,0.00,,---,0.00,VWS V14.01,2013-07-06 03:33:00,
2013-07-05 22:34:00,86.7,62.8,29.85,North,0,0.0,0.0,45,0.00,,---,0.00,VWS V14.01,2013-07-06 03:34:00,
2013-07-05 22:35:00,86.9,63.0,29.86,North,0,0.0,0.0,45,0.00,,---,0.00,VWS V14.01,2013-07-06 03:35:00,
2013-07-05 22:37:00,86.8,62.9,29.85,North,0,0.0,0.0,45,0.00,,---,0.00,VWS V14.01,2013-07-06 03:37:00,
2013-07-05 22:39:00,86.6,62.8,29.86,North,0,0.0,0.0,45,0.00,,---,0.00,VWS V14.01,2013-07-06 03:39:00,
2013-07-05 22:40:00,86.7,62.8,29.85,North,0,0.0,0.0,45,0.00,,---,0.00,VWS V14.01,2013-07-06 03:40:00,
2013-07-05 22:41:00,86.7,62.8,29.85,North,0,0.0,0.0,45,0.00,,---,0.00,VWS V14.01,2013-07-06 03:41:00,
2013-07-05 22:42:00,86.6,62.8,29.85,North,0,0.0,0.0,45,0.00,,---,0.00,VWS V14.01,2013-07-06 03:42:00,
2013-07-05 22:43:00,86.6,62.8,29.86,North,0,0.0,0.0,45,0.00,,---,0.00,VWS V14.01,2013-07-06 03:43:00,
2013-07-05 22:44:00,86.5,62.7,29.86,North,0,0.0,0.0,45,0.00,,---,0.00,VWS V14.01,2013-07-06 03:44:00,
2013-07-05 22:46:00,86.5,62.7,29.86,North,0,0.0,0.0,45,0.00,,---,0.00,VWS V14.01,2013-07-06 03:46:00,
2013-07-05 22:47:00,86.5,62.7,29.86,North,0,0.0,0.0,45,0.00,,---,0.00,VWS V14.01,2013-07-06 03:47:00,
2013-07-05 22:49:00,86.3,62.5,29.86,North,0,0.0,0.0,45,0.00,,---,0.00,VWS V14.01,2013-07-06 03:49:00,
2013-07-05 22:53:00,86.4,62.6,29.86,North,0,0.0,0.0,45,0.00,,---,0.00,VWS V14.01,2013-07-06 03:53:00,
2013-07-05 22:54:00,86.2,62.4,29.86,North,0,0.0,0.0,45,0.00,,---,0.00,VWS V14.01,2013-07-06 03:54:00,
2013-07-05 22:55:00,86.3,62.5,29.86,North,0,0.0,0.0,45,0.00,,---,0.00,VWS V14.01,2013-07-06 03:55:00,
2013-07-05 22:56:00,86.3,62.5,29.86,North,0,0.0,0.0,45,0.00,,---,0.00,VWS V14.01,2013-07-06 03:56:00,
2013-07-05 22:57:00,86.3,62.5,29.86,North,0,0.0,0.0,45,0.00,,---,0.00,VWS V14.01,2013-07-06 03:57:00,
2013-07-05 22:59:00,86.1,62.3,29.86,North,0,0.0,0.0,45,0.00,,---,0.00,VWS V14.01,2013-07-06 03:59:00,
2013-07-05 23:00:00,86.2,62.4,29.86,North,0,0.0,0.0,45,0.00,,---,0.00,VWS V14.01,2013-07-06 04:00:00,
2013-07-05 23:01:00,86.0,62.8,29.86,North,0,0.0,0.0,46,0.00,,---,0.00,VWS V14.01,2013-07-06 04:01:00,
2013-07-05 23:02:00,86.0,62.2,29.86,North,0,0.0,0.0,45,0.00,,---,0.00,VWS V14.01,2013-07-06 04:02:00,
2013-07-05 23:05:00,86.1,62.3,29.86,North,0,0.0,0.0,45,0.00,,---,0.00,VWS V14.01,2013-07-06 04:05:00,
2013-07-05 23:07:00,85.9,62.7,29.87,North,0,0.0,0.0,46,0.00,,---,0.00,VWS V14.01,2013-07-06 04:07:00,
2013-07-05 23:08:00,86.0,62.8,29.86,North,0,0.0,0.0,46,0.00,,---,0.00,VWS V14.01,2013-07-06 04:08:00,
2013-07-05 23:12:00,85.8,62.7,29.87,North,0,0.0,0.0,46,0.00,,---,0.00,VWS V14.01,2013-07-06 04:12:00,
2013-07-05 23:13:00,85.9,62.7,29.87,North,0,0.0,0.0,46,0.00,,---,0.00,VWS V14.01,2013-07-06 04:13:00,
2013-07-05 23:14:00,85.9,62.7,29.87,North,0,0.0,0.0,46,0.00,,---,0.00,VWS V14.01,2013-07-06 04:14:00,
2013-07-05 23:15:00,85.8,62.7,29.87,North,0,0.0,0.0,46,0.00,,---,0.00,VWS V14.01,2013-07-06 04:15:00,
2013-07-05 23:16:00,85.8,62.7,29.87,North,0,0.0,0.0,46,0.00,,---,0.00,VWS V14.01,2013-07-06 04:16:00,
2013-07-05 23:17:00,85.7,62.6,29.87,North,0,0.0,0.0,46,0.00,,---,0.00,VWS V14.01,2013-07-06 04:17:00,
2013-07-05 23:19:00,85.7,62.6,29.87,North,0,0.0,0.0,46,0.00,,---,0.00,VWS V14.01,2013-07-06 04:19:00,
2013-07-05 23:20:00,85.7,62.6,29.87,North,0,0.0,0.0,46,0.00,,---,0.00,VWS V14.01,2013-07-06 04:20:00,
2013-07-05 23:21:00,85.7,62.6,29.87,North,0,0.0,0.0,46,0.00,,---,0.00,VWS V14.01,2013-07-06 04:21:00,
2013-07-05 23:22:00,85.5,62.4,29.87,North,0,0.0,0.0,46,0.00,,---,0.00,VWS V14.01,2013-07-06 04:22:00,
2013-07-05 23:23:00,85.6,62.5,29.87,North,0,0.0,0.0,46,0.00,,---,0.00,VWS V14.01,2013-07-06 04:23:00,
2013-07-05 23:25:00,85.6,62.5,29.87,North,0,0.0,0.0,46,0.00,,---,0.00,VWS V14.01,2013-07-06 04:25:00,
2013-07-05 23:26:00,85.6,62.5,29.87,North,0,0.0,0.0,46,0.00,,---,0.00,VWS V14.01,2013-07-06 04:26:00,
2013-07-05 23:27:00,85.4,62.3,29.87,North,0,0.0,0.0,46,0.00,,---,0.00,VWS V14.01,2013-07-06 04:27:00,
2013-07-05 23:32:00,85.3,62.8,29.86,North,0,0.0,0.0,47,0.00,,---,0.00,VWS V14.01,2013-07-06 04:32:00,
2013-07-05 23:33:00,85.4,62.3,29.87,North,0,0.0,0.0,46,0.00,,---,0.00,VWS V14.01,2013-07-06 04:33:00,
2013-07-05 23:34:00,85.4,62.9,29.87,North,0,0.0,0.0,47,0.00,,---,0.00,VWS V14.01,2013-07-06 04:34:00,
2013-07-05 23:37:00,85.2,62.7,29.87,North,0,0.0,0.0,47,0.00,,---,0.00,VWS V14.01,2013-07-06 04:37:00,
2013-07-05 23:38:00,85.3,62.2,29.86,North,0,0.0,0.0,46,0.00,,---,0.00,VWS V14.01,2013-07-06 04:38:00,
2013-07-05 23:39:00,85.3,62.8,29.87,North,0,0.0,0.0,47,0.00,,---,0.00,VWS V14.01,2013-07-06 04:39:00,
2013-07-05 23:41:00,85.2,62.7,29.87,North,0,0.0,0.0,47,0.00,,---,0.00,VWS V14.01,2013-07-06 04:41:00,
2013-07-05 23:42:00,85.1,62.6,29.87,North,0,0.0,0.0,47,0.00,,---,0.00,VWS V14.01,2013-07-06 04:42:00,
2013-07-05 23:43:00,85.2,62.7,29.87,North,0,0.0,0.0,47,0.00,,---,0.00,VWS V14.01,2013-07-06 04:43:00,
2013-07-05 23:44:00,85.2,62.7,29.87,North,0,0.0,0.0,47,0.00,,---,0.00,VWS V14.01,2013-07-06 04:44:00,
2013-07-05 23:45:00,85.2,62.7,29.87,North,0,0.0,0.0,47,0.00,,---,0.00,VWS V14.01,2013-07-06 04:45:00,
2013-07-05 23:47:00,85.0,62.5,29.87,North,0,0.0,0.0,47,0.00,,---,0.00,VWS V14.01,2013-07-06 04:47:00,
2013-07-05 23:48:00,85.1,62.6,29.87,North,0,0.0,0.0,47,0.00,,---,0.00,VWS V14.01,2013-07-06 04:48:00,
2013-07-05 23:49:00,85.1,62.6,29.87,North,0,0.0,0.0,47,0.00,,---,0.00,VWS V14.01,2013-07-06 04:49:00,
2013-07-05 23:50:00,85.1,62.6,29.87,North,0,0.0,0.0,47,0.00,,---,0.00,VWS V14.01,2013-07-06 04:50:00,
2013-07-05 23:51:00,85.1,62.6,29.87,North,0,0.0,0.0,47,0.00,,---,0.00,VWS V14.01,2013-07-06 04:51:00,
2013-07-05 23:52:00,84.9,62.4,29.88,North,0,0.0,0.0,47,0.00,,---,0.00,VWS V14.01,2013-07-06 04:52:00,
2013-07-05 23:53:00,85.0,62.5,29.87,North,0,0.0,0.0,47,0.00,,---,0.00,VWS V14.01,2013-07-06 04:53:00,
2013-07-05 23:54:00,85.0,62.5,29.87,North,0,0.0,0.0,47,0.00,,---,0.00,VWS V14.01,2013-07-06 04:54:00,
2013-07-05 23:55:00,85.0,62.5,29.87,North,0,0.0,0.0,47,0.00,,---,0.00,VWS V14.01,2013-07-06 04:55:00,
2013-07-05 23:56:00,84.9,62.4,29.87,North,0,0.0,0.0,47,0.00,,---,0.00,VWS V14.01,2013-07-06 04:56:00,
2013-07-05 23:57:00,84.8,62.3,29.88,North,0,0.0,0.0,47,0.00,,---,0.00,VWS V14.01,2013-07-06 04:57:00,
2013-07-05 23:58:00,84.9,62.4,29.88,North,0,0.0,0.0,47,0.00,,---,0.00,VWS V14.01,2013-07-06 04:58:00,
2013-07-05 23:59:00,84.9,62.4,29.88,North,0,0.0,0.0,47,0.00,,---,0.00,VWS V14.01,2013-07-06 04:59:00,